KK6MIG-13 Weather Reports


Display with metric or nautical units.
time (UTC)temp
F
wind
direction
speed
MPH
gust
MPH
rain 1hr
in
rain 24hr
in
rain mn
in
humidity
%
barometer
mb
20260507003956 59 306 10.0 17.0 0.00 0.00 0.00 1 1017.5
20260507003856 59 268 10.0 17.0 0.00 0.00 0.00 1 1017.6
20260507003751 59 267 10.0 17.0 0.00 0.00 0.00 1 1017.7
20260507003652 59 313 10.0 17.0 0.00 0.00 0.00 1 1017.7
20260507003552 59 281 11.0 17.0 0.00 0.00 0.00 1 1017.6
20260507003452 59 268 11.0 17.0 0.00 0.00 0.00 1 1017.6
20260507003352 59 273 11.0 17.0 0.00 0.00 0.00 1 1017.7
20260507003252 59 288 11.0 18.0 0.00 0.00 0.00 1 1017.6
20260507003152 59 276 11.0 18.0 0.00 0.00 0.00 1 1017.6
20260507003052 59 295 11.0 18.0 0.00 0.00 0.00 1 1017.7
20260507002951 59 266 12.0 18.0 0.00 0.00 0.00 1 1017.6
20260507002851 58 187 12.0 18.0 0.00 0.00 0.00 1 1017.6
20260507002752 58 275 12.0 18.0 0.00 0.00 0.00 1 1017.7
20260507002652 58 278 12.0 18.0 0.00 0.00 0.00 1 1017.7
20260507002552 58 290 12.0 20.0 0.00 0.00 0.00 1 1017.6
20260507002452 58 312 13.0 21.0 0.00 0.00 0.00 1 1017.6
20260507002351 58 279 13.0 21.0 0.00 0.00 0.00 1 1017.6
20260507002306 58 280 12.0 21.0 0.00 0.00 0.00 1 1017.7
20260507002155 58 323 12.0 21.0 0.00 0.00 0.00 1 1017.7
20260507001952 58 258 12.0 21.0 0.00 0.00 0.00 1 1017.7
20260507001848 59 242 11.0 21.0 0.00 0.00 0.00 1 1017.6
20260507001756 59 281 11.0 21.0 0.00 0.00 0.00 1 1017.7
20260507001752 59 305 11.0 21.0 0.00 0.00 0.00 1 1017.6
20260507001548 59 292 10.0 21.0 0.00 0.00 0.00 1 1017.8
20260507001447 59 265 10.0 18.0 0.00 0.00 0.00 1 1017.7
20260507001348 59 293 10.0 18.0 0.00 0.00 0.00 1 1017.7
20260507001248 59 279 10.0 18.0 0.00 0.00 0.00 1 1017.7
20260507001148 59 280 10.0 17.0 0.00 0.00 0.00 1 1017.7
20260507001048 59 283 10.0 17.0 0.00 0.00 0.00 1 1017.7
20260507000947 59 249 10.0 17.0 0.00 0.00 0.00 1 1017.7
20260507000847 59 294 10.0 17.0 0.00 0.00 0.00 1 1017.6
20260507000748 59 289 10.0 17.0 0.00 0.00 0.00 1 1017.7
20260507000648 59 301 10.0 17.0 0.00 0.00 0.00 1 1017.7
20260507000548 59 263 10.0 19.0 0.00 0.00 0.00 1 1017.7
20260507000449 59 280 10.0 19.0 0.00 0.00 0.00 1 1017.7
20260507000347 59 313 10.0 19.0 0.00 0.00 0.00 1 1017.7
20260507000248 59 288 10.0 19.0 0.00 0.00 0.00 1 1017.7
20260507000148 59 283 10.0 19.0 0.00 0.00 0.00 1 1017.8
20260507000048 59 288 10.0 19.0 0.00 0.00 0.00 1 1017.8
20260506235941 59 279 10.0 19.0 0.00 0.00 0.00 1 1017.8
20260506235841 59 284 10.0 19.0 0.00 0.00 0.00 1 1017.8
20260506235742 59 254 10.0 19.0 0.00 0.00 0.00 1 1017.8
20260506235642 59 279 9.0 19.0 0.00 0.00 0.00 1 1017.8
20260506235542 59 282 10.0 18.0 0.00 0.00 0.00 1 1017.8
20260506235442 59 265 10.0 18.0 0.00 0.00 0.00 1 1017.8
20260506235342 59 235 10.0 20.0 0.00 0.00 0.00 1 1017.7
20260506235241 59 278 10.0 20.0 0.00 0.00 0.00 1 1017.7
20260506235141 59 260 10.0 20.0 0.00 0.00 0.00 1 1017.8
20260506235041 59 265 10.0 20.0 0.00 0.00 0.00 1 1017.8
20260506234942 59 258 10.0 20.0 0.00 0.00 0.00 1 1017.8
20260506234842 59 251 10.0 20.0 0.00 0.00 0.00 1 1017.8
20260506234740 59 280 11.0 20.0 0.00 0.00 0.00 1 1017.7
20260506234639 59 252 11.0 20.0 0.00 0.00 0.00 1 1017.7
20260506234539 59 260 11.0 20.0 0.00 0.00 0.00 1 1017.8
20260506234440 59 275 11.0 20.0 0.00 0.00 0.00 1 1017.8
20260506234340 59 264 12.0 19.0 0.00 0.00 0.00 1 1017.8
20260506234240 59 292 12.0 19.0 0.00 0.00 0.00 1 1017.8
20260506234140 59 288 12.0 19.0 0.00 0.00 0.00 1 1017.8
20260506234037 59 325 12.0 18.0 0.00 0.00 0.00 1 1017.8
20260506233938 59 293 12.0 18.0 0.00 0.00 0.00 1 1017.8
20260506233838 59 283 12.0 18.0 0.00 0.00 0.00 1 1017.9
20260506233738 59 287 12.0 18.0 0.00 0.00 0.00 1 1017.8
20260506233638 59 247 12.0 18.0 0.00 0.00 0.00 1 1017.8
20260506233538 59 252 12.0 18.0 0.00 0.00 0.00 1 1017.9
20260506233437 59 273 12.0 18.0 0.00 0.00 0.00 1 1017.9
20260506233337 59 277 11.0 18.0 0.00 0.00 0.00 1 1017.8
20260506233238 59 264 11.0 18.0 0.00 0.00 0.00 1 1017.9
20260506233144 59 290 11.0 17.0 0.00 0.00 0.00 1 1017.8
20260506233140 59 309 11.0 18.0 0.00 0.00 0.00 1 1017.8
20260506232936 59 291 10.0 17.0 0.00 0.00 0.00 1 1017.9
20260506232836 59 284 11.0 17.0 0.00 0.00 0.00 1 1017.9
20260506232735 59 249 11.0 18.0 0.00 0.00 0.00 1 1017.9
20260506232635 59 245 11.0 18.0 0.00 0.00 0.00 1 1017.9
20260506232536 59 267 11.0 18.0 0.00 0.00 0.00 1 1017.9
20260506232434 59 275 11.0 18.0 0.00 0.00 0.00 1 1017.9
20260506232334 59 290 12.0 18.0 0.00 0.00 0.00 1 1017.9
20260506232234 59 306 12.0 18.0 0.00 0.00 0.00 1 1017.9
20260506232134 59 275 12.0 21.0 0.00 0.00 0.00 1 1017.9
20260506232033 58 267 12.0 21.0 0.00 0.00 0.00 1 1017.9
20260506231933 58 270 12.0 21.0 0.00 0.00 0.00 1 1017.9
20260506231842 58 232 12.0 21.0 0.00 0.00 0.00 1 1017.9
20260506231838 58 253 12.0 21.0 0.00 0.00 0.00 1 1018.0
20260506231633 58 266 12.0 21.0 0.00 0.00 0.00 1 1017.9
20260506231535 59 312 12.0 22.0 0.00 0.00 0.00 1 1018.0
20260506231433 59 278 11.0 22.0 0.00 0.00 0.00 1 1017.9
20260506231328 59 284 11.0 22.0 0.00 0.00 0.00 1 1017.9
20260506231227 59 289 11.0 22.0 0.00 0.00 0.00 1 1017.9
20260506231128 59 290 12.0 22.0 0.00 0.00 0.00 1 1017.9
20260506231028 59 302 12.0 22.0 0.00 0.00 0.00 1 1017.9
20260506230933 59 271 12.0 22.0 0.00 0.00 0.00 1 1018.0
20260506230821 59 277 12.0 22.0 0.00 0.00 0.00 1 1018.0
20260506230720 59 290 12.0 22.0 0.00 0.00 0.00 1 1018.0
20260506230620 59 261 12.0 22.0 0.00 0.00 0.00 1 1018.0
20260506230519 59 253 12.0 19.0 0.00 0.00 0.00 1 1018.0
20260506230419 59 275 12.0 19.0 0.00 0.00 0.00 1 1018.1
20260506230316 59 275 12.0 19.0 0.00 0.00 0.00 1 1018.1
20260506230213 59 270 12.0 20.0 0.00 0.00 0.00 1 1018.1
20260506230113 59 297 12.0 20.0 0.00 0.00 0.00 1 1018.1
20260506230014 59 284 11.0 20.0 0.00 0.00 0.00 1 1018.1
20260506225912 59 319 12.0 20.0 0.00 0.00 0.00 1 1018.1
20260506225807 59 0 12.0 20.0 0.00 0.00 0.00 1 1018.1
20260506225708 59 300 12.0 20.0 0.00 0.00 0.00 1 1018.1
20260506225608 59 305 12.0 20.0 0.00 0.00 0.00 1 1018.1
20260506225507 59 284 12.0 20.0 0.00 0.00 0.00 1 1018.1
20260506225405 59 262 12.0 20.0 0.00 0.00 0.00 1 1018.1
20260506225300 59 289 13.0 20.0 0.00 0.00 0.00 1 1018.1
20260506225159 59 275 13.0 20.0 0.00 0.00 0.00 1 1018.1
20260506225059 59 271 13.0 20.0 0.00 0.00 0.00 1 1018.1
20260506225000 59 299 13.0 20.0 0.00 0.00 0.00 1 1018.1
20260506224859 59 298 12.0 20.0 0.00 0.00 0.00 1 1018.1
20260506224753 59 225 12.0 20.0 0.00 0.00 0.00 1 1018.1
20260506224654 59 279 12.0 23.0 0.00 0.00 0.00 1 1018.1
20260506224554 59 283 12.0 23.0 0.00 0.00 0.00 1 1018.2
20260506224454 59 277 11.0 23.0 0.00 0.00 0.00 1 1018.2
20260506224352 59 273 11.0 23.0 0.00 0.00 0.00 1 1018.2
20260506224248 59 263 11.0 23.0 0.00 0.00 0.00 1 1018.2
20260506224148 60 268 10.0 23.0 0.00 0.00 0.00 1 1018.2
20260506224048 60 274 10.0 23.0 0.00 0.00 0.00 1 1018.3
20260506223947 60 306 10.0 23.0 0.00 0.00 0.00 1 1018.3
20260506223848 60 280 11.0 23.0 0.00 0.00 0.00 1 1018.3
20260506223747 60 293 11.0 23.0 0.00 0.00 0.00 1 1018.3
20260506223648 60 288 10.0 19.0 0.00 0.00 0.00 1 1018.3
20260506223548 60 263 11.0 20.0 0.00 0.00 0.00 1 1018.3
20260506223447 60 279 11.0 20.0 0.00 0.00 0.00 1 1018.4
20260506223356 60 313 11.0 20.0 0.00 0.00 0.00 1 1018.3
20260506223352 60 282 11.0 20.0 0.00 0.00 0.00 1 1018.3
20260506223147 59 321 12.0 20.0 0.00 0.00 0.00 1 1018.3
20260506223047 59 291 12.0 20.0 0.00 0.00 0.00 1 1018.4
20260506222948 59 223 12.0 20.0 0.00 0.00 0.00 1 1018.3
20260506222848 59 291 12.0 20.0 0.00 0.00 0.00 1 1018.3
20260506222746 59 280 12.0 20.0 0.00 0.00 0.00 1 1018.4
20260506222646 59 256 12.0 20.0 0.00 0.00 0.00 1 1018.4
20260506222546 60 285 12.0 19.0 0.00 0.00 0.00 1 1018.4
20260506222445 59 245 12.0 19.0 0.00 0.00 0.00 1 1018.4
20260506222345 60 278 12.0 19.0 0.00 0.00 0.00 1 1018.4
20260506222245 60 282 12.0 18.0 0.00 0.00 0.00 1 1018.4
20260506222145 60 277 12.0 18.0 0.00 0.00 0.00 1 1018.4
20260506222038 60 260 12.0 20.0 0.00 0.00 0.00 1 1018.4
20260506221937 60 314 12.0 20.0 0.00 0.00 0.00 1 1018.5
20260506221837 60 283 12.0 20.0 0.00 0.00 0.00 1 1018.5
20260506221738 60 277 12.0 20.0 0.00 0.00 0.00 1 1018.5
20260506221637 60 263 11.0 20.0 0.00 0.00 0.00 1 1018.5
20260506221531 60 300 12.0 20.0 0.00 0.00 0.00 1 1018.5
20260506221440 60 295 11.0 20.0 0.00 0.00 0.00 1 1018.5
20260506221435 60 292 11.0 20.0 0.00 0.00 0.00 1 1018.5
20260506221231 60 278 11.0 20.0 0.00 0.00 0.00 1 1018.6
20260506221131 60 261 11.0 20.0 0.00 0.00 0.00 1 1018.6
20260506221025 60 280 11.0 20.0 0.00 0.00 0.00 1 1018.6
20260506220926 60 269 11.0 20.0 0.00 0.00 0.00 1 1018.6
20260506220826 60 274 11.0 20.0 0.00 0.00 0.00 1 1018.7
20260506220725 60 307 11.0 20.0 0.00 0.00 0.00 1 1018.7
20260506220624 60 252 11.0 20.0 0.00 0.00 0.00 1 1018.7
20260506220520 60 280 11.0 20.0 0.00 0.00 0.00 1 1018.7
20260506220420 60 286 10.0 20.0 0.00 0.00 0.00 1 1018.6
20260506220319 60 251 10.0 20.0 0.00 0.00 0.00 1 1018.7
20260506220219 60 333 10.0 20.0 0.00 0.00 0.00 1 1018.7
20260506220119 60 273 10.0 20.0 0.00 0.00 0.00 1 1018.7
20260506220014 60 270 11.0 18.0 0.00 0.00 0.00 1 1018.7
20260506215914 60 287 11.0 18.0 0.00 0.00 0.00 1 1018.7
20260506215813 60 282 11.0 18.0 0.00 0.00 0.00 1 1018.7
20260506215713 60 274 11.0 18.0 0.00 0.00 0.00 1 1018.6
20260506215613 60 294 11.0 18.0 0.00 0.00 0.00 1 1018.7
20260506215516 60 257 12.0 17.0 0.00 0.00 0.00 1 1018.8
20260506215512 60 275 12.0 17.0 0.00 0.00 0.00 1 1018.8
20260506215307 60 282 12.0 17.0 0.00 0.00 0.00 1 1018.8
20260506215207 60 259 12.0 17.0 0.00 0.00 0.00 1 1018.8
20260506215107 60 254 12.0 17.0 0.00 0.00 0.00 1 1018.8
20260506215001 60 0 11.0 17.0 0.00 0.00 0.00 1 1018.8
20260506214910 60 281 11.0 17.0 0.00 0.00 0.00 1 1018.8
20260506214906 60 281 11.0 17.0 0.00 0.00 0.00 1 1018.8
20260506214701 60 282 11.0 17.0 0.00 0.00 0.00 1 1018.8
20260506214601 60 271 11.0 17.0 0.00 0.00 0.00 1 1018.8
20260506214455 60 259 11.0 19.0 0.00 0.00 0.00 1 1018.8
20260506214355 60 299 10.0 19.0 0.00 0.00 0.00 1 1018.8
20260506214255 60 263 11.0 21.0 0.00 0.00 0.00 1 1018.8
20260506214204 60 250 11.0 21.0 0.00 0.00 0.00 1 1018.9
20260506214159 60 227 11.0 21.0 0.00 0.00 0.00 1 1018.8
20260506213950 60 292 11.0 21.0 0.00 0.00 0.00 1 1018.9
20260506213849 60 302 11.0 21.0 0.00 0.00 0.00 1 1018.9
20260506213749 60 271 11.0 21.0 0.00 0.00 0.00 1 1018.9
20260506213649 60 280 11.0 21.0 0.00 0.00 0.00 1 1018.9
20260506213549 60 259 11.0 21.0 0.00 0.00 0.00 1 1019.0
20260506213443 60 0 10.0 21.0 0.00 0.00 0.00 1 1018.9
20260506213343 60 255 10.0 21.0 0.00 0.00 0.00 1 1018.9
20260506213243 60 292 10.0 15.0 0.00 0.00 0.00 1 1018.8
20260506213144 60 274 10.0 15.0 0.00 0.00 0.00 1 1018.9
20260506213042 60 279 10.0 16.0 0.00 0.00 0.00 1 1018.9
20260506212938 60 278 10.0 16.0 0.00 0.00 0.00 1 1018.8
20260506212838 60 242 10.0 16.0 0.00 0.00 0.00 1 1018.9
20260506212738 60 287 10.0 16.0 0.00 0.00 0.00 1 1018.9
20260506212638 60 264 10.0 16.0 0.00 0.00 0.00 1 1019.0
20260506212540 60 317 10.0 17.0 0.00 0.00 0.00 1 1018.9
20260506212536 60 276 11.0 17.0 0.00 0.00 0.00 1 1019.0
20260506212332 60 273 10.0 17.0 0.00 0.00 0.00 1 1019.0
20260506212231 60 292 10.0 17.0 0.00 0.00 0.00 1 1018.9
20260506212131 60 257 10.0 17.0 0.00 0.00 0.00 1 1018.9
20260506212031 60 284 10.0 17.0 0.00 0.00 0.00 1 1019.0
20260506211926 60 286 10.0 17.0 0.00 0.00 0.00 1 1018.9
20260506211825 60 302 10.0 17.0 0.00 0.00 0.00 1 1018.9
20260506211725 60 271 11.0 18.0 0.00 0.00 0.00 1 1018.9
20260506211625 60 259 11.0 18.0 0.00 0.00 0.00 1 1018.8
20260506211525 60 297 11.0 18.0 0.00 0.00 0.00 1 1018.8
20260506211420 60 278 11.0 18.0 0.00 0.00 0.00 1 1018.9
20260506211319 60 273 11.0 18.0 0.00 0.00 0.00 1 1018.8
20260506211228 60 257 11.0 18.0 0.00 0.00 0.00 1 1018.9
20260506211224 60 256 11.0 18.0 0.00 0.00 0.00 1 1019.0
20260506211019 60 220 10.0 18.0 0.00 0.00 0.00 1 1018.8
20260506210921 60 265 11.0 18.0 0.00 0.00 0.00 1 1018.8
20260506210917 60 251 10.0 18.0 0.00 0.00 0.00 1 1018.9
20260506210714 60 323 10.0 18.0 0.00 0.00 0.00 1 1018.9
20260506210614 60 289 10.0 18.0 0.00 0.00 0.00 1 1018.9
20260506210513 60 252 10.0 18.0 0.00 0.00 0.00 1 1018.9
20260506210408 60 288 10.0 18.0 0.00 0.00 0.00 1 1018.8
20260506210308 60 285 10.0 18.0 0.00 0.00 0.00 1 1018.9
20260506210208 60 269 11.0 18.0 0.00 0.00 0.00 1 1019.0
20260506210107 60 319 11.0 18.0 0.00 0.00 0.00 1 1018.9
20260506210010 60 238 11.0 18.0 0.00 0.00 0.00 1 1018.9
20260506210005 60 312 11.0 18.0 0.00 0.00 0.00 1 1018.9
20260506205814 60 237 11.0 18.0 0.00 0.00 0.00 1 1018.9
20260506205705 60 295 11.0 18.0 0.00 0.00 0.00 1 1018.9
20260506205501 60 300 10.0 18.0 0.00 0.00 0.00 1 1018.9
20260506205355 60 286 10.0 18.0 0.00 0.00 0.00 1 1018.8
20260506205255 60 242 10.0 15.0 0.00 0.00 0.00 1 1018.9
20260506205208 60 279 10.0 15.0 0.00 0.00 0.00 1 1018.9
20260506205059 60 279 10.0 15.0 0.00 0.00 0.00 1 1019.0
20260506204849 60 272 10.0 16.0 0.00 0.00 0.00 1 1018.9
20260506204749 61 256 10.0 16.0 0.00 0.00 0.00 1 1019.0
20260506204649 61 286 10.0 16.0 0.00 0.00 0.00 1 1019.0
20260506204549 61 273 10.0 16.0 0.00 0.00 0.00 1 1019.0
20260506204449 61 257 10.0 16.0 0.00 0.00 0.00 1 1019.0
20260506204343 60 274 10.0 16.0 0.00 0.00 0.00 1 1018.9
20260506204243 61 0 10.0 16.0 0.00 0.00 0.00 1 1019.0
20260506204143 61 258 10.0 16.0 0.00 0.00 0.00 1 1019.0
20260506204044 61 270 10.0 16.0 0.00 0.00 0.00 1 1019.0
20260506203942 61 285 9.0 16.0 0.00 0.00 0.00 1 1019.0
20260506203837 61 287 9.0 16.0 0.00 0.00 0.00 1 1019.0
20260506203738 61 267 10.0 15.0 0.00 0.00 0.00 1 1019.0
20260506203646 60 272 9.0 15.0 0.00 0.00 0.00 1 1019.0
20260506203642 61 292 10.0 15.0 0.00 0.00 0.00 1 1019.0
20260506203440 60 244 10.0 15.0 0.00 0.00 0.00 1 1019.1
20260506203435 60 232 10.0 15.0 0.00 0.00 0.00 1 1019.1
20260506203231 60 318 10.0 15.0 0.00 0.00 0.00 1 1019.1
20260506203131 60 268 9.0 15.0 0.00 0.00 0.00 1 1019.1
20260506203032 60 241 9.0 15.0 0.00 0.00 0.00 1 1019.1
20260506202930 60 282 9.0 15.0 0.00 0.00 0.00 1 1019.1
20260506202825 60 290 9.0 15.0 0.00 0.00 0.00 1 1019.1
20260506202746 61 283 9.0 15.0 0.00 0.00 0.00 1 1019.1
20260506202742 61 261 9.0 15.0 0.00 0.00 0.00 1 1019.1
20260506202634 61 246 9.0 15.0 0.00 0.00 0.00 1 1019.1
20260506202319 61 271 9.0 14.0 0.00 0.00 0.00 1 1019.1
20260506202219 61 298 9.0 15.0 0.00 0.00 0.00 1 1019.1
20260506202119 61 309 9.0 15.0 0.00 0.00 0.00 1 1019.1
20260506202019 61 271 9.0 15.0 0.00 0.00 0.00 1 1019.1
20260506201919 61 262 9.0 16.0 0.00 0.00 0.00 1 1019.1
20260506201813 60 259 9.0 16.0 0.00 0.00 0.00 1 1019.1
20260506201713 60 298 9.0 16.0 0.00 0.00 0.00 1 1019.2
20260506201622 60 355 9.0 16.0 0.00 0.00 0.00 1 1019.2
20260506201618 60 280 9.0 16.0 0.00 0.00 0.00 1 1019.2
20260506201413 60 255 9.0 16.0 0.00 0.00 0.00 1 1019.2
20260506201307 60 261 8.0 16.0 0.00 0.00 0.00 1 1019.3
20260506201207 60 281 8.0 16.0 0.00 0.00 0.00 1 1019.3
20260506201119 60 265 8.0 16.0 0.00 0.00 0.00 1 1019.3
20260506201011 60 0 8.0 16.0 0.00 0.00 0.00 1 1019.2
20260506200820 60 283 8.0 14.0 0.00 0.00 0.00 1 1019.3
20260506200816 60 250 8.0 13.0 0.00 0.00 0.00 1 1019.3
20260506200812 60 269 8.0 14.0 0.00 0.00 0.00 1 1019.3
20260506200503 60 267 8.0 13.0 0.00 0.00 0.00 1 1019.3
20260506200401 60 289 8.0 13.0 0.00 0.00 0.00 1 1019.3
20260506200255 60 296 8.0 13.0 0.00 0.00 0.00 1 1019.3
20260506200155 60 271 8.0 13.0 0.00 0.00 0.00 1 1019.3
20260506200055 60 232 7.0 13.0 0.00 0.00 0.00 1 1019.3
20260506195954 60 257 7.0 13.0 0.00 0.00 0.00 1 1019.2
20260506195855 61 272 7.0 13.0 0.00 0.00 0.00 1 1019.3
20260506195749 61 312 7.0 13.0 0.00 0.00 0.00 1 1019.3
20260506195657 61 294 6.0 13.0 0.00 0.00 0.00 1 1019.3
20260506195653 61 282 7.0 13.0 0.00 0.00 0.00 1 1019.3
20260506195449 61 298 6.0 13.0 0.00 0.00 0.00 1 1019.3
20260506195349 61 287 6.0 13.0 0.00 0.00 0.00 1 1019.3
20260506195243 61 251 6.0 13.0 0.00 0.00 0.00 1 1019.3
20260506195143 61 292 6.0 13.0 0.00 0.00 0.00 1 1019.4
20260506195043 61 277 7.0 13.0 0.00 0.00 0.00 1 1019.3
20260506194943 61 277 6.0 12.0 0.00 0.00 0.00 1 1019.4
20260506194843 61 294 6.0 12.0 0.00 0.00 0.00 1 1019.4
20260506194746 61 222 7.0 12.0 0.00 0.00 0.00 1 1019.4
20260506194741 61 292 6.0 12.0 0.00 0.00 0.00 1 1019.3
20260506194537 61 276 7.0 12.0 0.00 0.00 0.00 1 1019.4
20260506194437 61 269 7.0 12.0 0.00 0.00 0.00 1 1019.4
20260506194337 61 259 7.0 12.0 0.00 0.00 0.00 1 1019.3
20260506194231 61 240 8.0 12.0 0.00 0.00 0.00 1 1019.4
20260506194131 61 291 8.0 14.0 0.00 0.00 0.00 1 1019.4
20260506194031 61 292 7.0 14.0 0.00 0.00 0.00 1 1019.4
20260506193931 61 263 8.0 14.0 0.00 0.00 0.00 1 1019.4
20260506193831 60 257 8.0 14.0 0.00 0.00 0.00 1 1019.4
20260506193733 60 310 8.0 14.0 0.00 0.00 0.00 1 1019.4
20260506193729 60 277 7.0 14.0 0.00 0.00 0.00 1 1019.4
20260506193525 60 311 7.0 14.0 0.00 0.00 0.00 1 1019.4
20260506193426 60 229 7.0 14.0 0.00 0.00 0.00 1 1019.5
20260506193325 60 254 7.0 14.0 0.00 0.00 0.00 1 1019.4
20260506193219 60 198 7.0 14.0 0.00 0.00 0.00 1 1019.4
20260506193119 61 281 7.0 12.0 0.00 0.00 0.00 1 1019.4
20260506193019 60 241 7.0 12.0 0.00 0.00 0.00 1 1019.4
20260506192919 60 238 7.0 12.0 0.00 0.00 0.00 2 1019.5
20260506192819 60 257 7.0 12.0 0.00 0.00 0.00 1 1019.4
20260506192714 61 290 7.0 12.0 0.00 0.01 0.00 1 1019.5
20260506192613 61 268 7.0 13.0 0.00 0.01 0.00 1 1019.5
20260506192513 61 227 7.0 13.0 0.00 0.01 0.00 1 1019.5
20260506192413 60 282 7.0 13.0 0.00 0.01 0.00 1 1019.5
20260506192313 60 285 7.0 13.0 0.00 0.01 0.00 5 1019.5
20260506192216 61 263 6.0 13.0 0.00 0.01 0.00 2 1019.5
20260506192211 61 291 7.0 13.0 0.00 0.01 0.00 7 1019.5
20260506192007 61 275 6.0 13.0 0.00 0.01 0.00 2 1019.5
20260506191907 61 316 6.0 13.0 0.00 0.01 0.00 3 1019.5
20260506191808 61 275 6.0 13.0 0.00 0.01 0.00 3 1019.5
20260506191701 61 236 5.0 13.0 0.00 0.01 0.00 1 1019.5
20260506191601 61 229 5.0 11.0 0.00 0.01 0.00 1 1019.5
20260506191501 61 266 6.0 11.0 0.00 0.01 0.00 1 1019.5
20260506191401 61 253 6.0 11.0 0.00 0.01 0.00 1 1019.5
20260506191259 61 269 6.0 11.0 0.00 0.01 0.00 1 1019.5
20260506191055 61 258 6.0 11.0 0.00 0.01 0.00 1 1019.5
20260506190951 60 239 6.0 12.0 0.00 0.01 0.00 1 1019.5
20260506190850 60 269 6.0 12.0 0.00 0.01 0.00 1 1019.6
20260506190750 60 277 6.0 12.0 0.00 0.01 0.00 1 1019.6
20260506190649 60 273 6.0 12.0 0.00 0.01 0.00 1 1019.6
20260506190549 60 252 7.0 12.0 0.00 0.01 0.00 1 1019.6
20260506190449 60 271 7.0 12.0 0.00 0.01 0.00 1 1019.6
20260506190349 60 245 7.0 12.0 0.00 0.01 0.00 1 1019.6
20260506190249 60 284 7.0 12.0 0.00 0.01 0.00 1 1019.6
20260506190157 60 274 7.0 12.0 0.00 0.01 0.00 1 1019.6
20260506190153 60 279 7.0 12.0 0.00 0.01 0.00 1 1019.7
20260506185949 60 318 7.0 12.0 0.00 0.01 0.00 1 1019.6
20260506185850 60 268 7.0 12.0 0.00 0.01 0.00 3 1019.6
20260506185749 60 262 7.0 12.0 0.00 0.01 0.00 6 1019.6
20260506185649 60 279 7.0 12.0 0.00 0.01 0.00 7 1019.6
20260506185549 60 272 6.0 12.0 0.00 0.01 0.00 4 1019.6
20260506185449 60 238 6.0 11.0 0.00 0.01 0.00 4 1019.6
20260506185349 60 232 6.0 11.0 0.00 0.01 0.00 3 1019.6
20260506185246 60 239 6.0 10.0 0.00 0.01 0.00 1 1019.6
20260506185148 60 231 5.0 9.0 0.00 0.01 0.00 1 1019.6
20260506185046 60 286 6.0 10.0 0.00 0.01 0.00 1 1019.6
20260506184941 60 261 6.0 10.0 0.00 0.01 0.00 1 1019.6
20260506184841 60 275 6.0 10.0 0.00 0.01 0.00 1 1019.6
20260506184741 60 278 6.0 10.0 0.00 0.01 0.00 1 1019.6
20260506184641 60 248 6.0 10.0 0.00 0.01 0.00 1 1019.6
20260506184541 60 238 6.0 10.0 0.00 0.01 0.00 1 1019.5
20260506184437 60 245 6.0 11.0 0.00 0.01 0.00 1 1019.6
20260506184337 60 240 6.0 12.0 0.00 0.01 0.00 1 1019.6
20260506184246 60 258 6.0 12.0 0.00 0.01 0.00 1 1019.6
20260506184241 60 256 6.0 12.0 0.00 0.01 0.00 1 1019.6
20260506184037 60 245 6.0 12.0 0.00 0.01 0.00 1 1019.6
20260506183937 60 277 6.0 12.0 0.00 0.01 0.00 1 1019.6
20260506183837 60 261 6.0 12.0 0.00 0.01 0.00 1 1019.6
20260506183736 60 250 6.0 12.0 0.00 0.01 0.00 1 1019.6
20260506183637 60 274 6.0 12.0 0.00 0.01 0.00 1 1019.6
20260506183537 60 232 6.0 12.0 0.00 0.01 0.00 1 1019.6
20260506183437 60 210 5.0 12.0 0.00 0.01 0.00 1 1019.5
20260506183337 60 229 5.0 10.0 0.00 0.01 0.00 1 1019.6
20260506183237 60 234 5.0 9.0 0.00 0.01 0.00 1 1019.6
20260506183137 60 219 5.0 9.0 0.00 0.01 0.00 1 1019.6
20260506183037 60 241 5.0 9.0 0.00 0.01 0.00 1 1019.6
20260506182937 60 215 5.0 9.0 0.00 0.01 0.00 1 1019.6
20260506182837 60 252 5.0 9.0 0.00 0.01 0.00 1 1019.6
20260506182732 60 246 5.0 9.0 0.00 0.01 0.00 1 1019.6
20260506182632 60 278 5.0 9.0 0.00 0.01 0.00 1 1019.6
20260506182533 60 271 5.0 9.0 0.00 0.01 0.00 1 1019.6
20260506182433 60 327 5.0 9.0 0.00 0.01 0.00 1 1019.6
20260506182333 60 284 5.0 9.0 0.00 0.01 0.00 1 1019.6
20260506182233 60 288 5.0 9.0 0.00 0.01 0.00 1 1019.6
20260506182132 60 293 5.0 9.0 0.00 0.01 0.00 1 1019.7
20260506182033 60 257 6.0 9.0 0.00 0.01 0.00 1 1019.7
20260506181933 60 226 6.0 9.0 0.00 0.01 0.00 1 1019.6
20260506181833 60 238 6.0 10.0 0.00 0.01 0.00 1 1019.6
20260506181733 60 275 6.0 10.0 0.00 0.01 0.00 1 1019.6
20260506181634 60 277 6.0 10.0 0.00 0.01 0.00 1 1019.6
20260506181541 59 257 6.0 10.0 0.00 0.01 0.00 1 1019.6
20260506181537 60 271 6.0 10.0 0.00 0.01 0.00 1 1019.6
20260506181332 59 227 6.0 10.0 0.00 0.01 0.00 1 1019.6
20260506181232 59 243 6.0 10.0 0.00 0.01 0.00 1 1019.6
20260506181132 59 253 6.0 10.0 0.00 0.01 0.00 1 1019.6
20260506181032 59 246 6.0 10.0 0.00 0.01 0.00 1 1019.6
20260506180933 59 257 6.0 10.0 0.00 0.01 0.00 1 1019.6
20260506180833 59 255 6.0 10.0 0.00 0.01 0.00 1 1019.6
20260506180733 59 284 6.0 11.0 0.00 0.01 0.00 1 1019.6
20260506180632 59 254 6.0 11.0 0.00 0.01 0.00 1 1019.6
20260506180533 59 269 6.0 11.0 0.00 0.01 0.00 1 1019.6
20260506180433 59 288 6.0 11.0 0.00 0.01 0.00 1 1019.6
20260506180327 59 203 6.0 11.0 0.00 0.01 0.00 1 1019.6
20260506180226 59 236 5.0 11.0 0.00 0.01 0.00 1 1019.5
20260506180127 59 267 5.0 11.0 0.00 0.01 0.00 1 1019.6
20260506180027 59 236 5.0 11.0 0.00 0.01 0.00 1 1019.5
20260506175927 59 254 5.0 11.0 0.00 0.01 0.00 1 1019.5
20260506175827 59 243 5.0 10.0 0.00 0.01 0.00 1 1019.5
20260506175727 59 269 4.0 9.0 0.00 0.01 0.00 1 1019.5
20260506175626 59 279 5.0 9.0 0.00 0.01 0.00 1 1019.5
20260506175527 60 315 5.0 9.0 0.00 0.01 0.00 1 1019.5
20260506175427 60 276 5.0 9.0 0.00 0.01 0.00 1 1019.5
20260506175327 60 281 4.0 9.0 0.00 0.01 0.00 1 1019.4
20260506175227 60 215 5.0 9.0 0.00 0.01 0.00 1 1019.5
20260506175123 60 225 5.0 10.0 0.00 0.01 0.00 1 1019.5
20260506175023 60 300 5.0 10.0 0.00 0.01 0.00 1 1019.5
20260506174923 60 259 5.0 10.0 0.00 0.01 0.00 1 1019.5
20260506174823 60 273 5.0 10.0 0.00 0.01 0.00 1 1019.5
20260506174723 60 300 5.0 10.0 0.00 0.01 0.00 1 1019.6
20260506174623 60 250 5.0 10.0 0.00 0.01 0.00 1 1019.6
20260506174522 59 220 5.0 10.0 0.00 0.01 0.00 1 1019.5
20260506174423 59 219 5.0 10.0 0.00 0.01 0.00 1 1019.6
20260506174321 59 243 5.0 10.0 0.00 0.01 0.00 1 1019.5
20260506174221 59 290 5.0 10.0 0.00 0.01 0.00 1 1019.5
20260506174121 59 0 5.0 10.0 0.00 0.01 0.00 1 1019.5
20260506174021 59 325 5.0 9.0 0.00 0.01 0.00 1 1019.5
20260506173917 59 278 5.0 9.0 0.00 0.01 0.00 1 1019.5
20260506173817 59 281 5.0 9.0 0.00 0.01 0.00 1 1019.5
20260506173717 59 276 5.0 9.0 0.00 0.01 0.00 1 1019.5
20260506173617 59 260 5.0 9.0 0.00 0.01 0.00 1 1019.5
20260506173517 59 217 5.0 9.0 0.00 0.01 0.00 1 1019.5
20260506173417 59 237 5.0 9.0 0.00 0.01 0.00 1 1019.5
20260506173317 59 248 6.0 12.0 0.00 0.01 0.00 1 1019.5
20260506173217 59 281 6.0 12.0 0.00 0.01 0.00 1 1019.4
20260506173117 59 281 6.0 12.0 0.00 0.01 0.00 1 1019.5
20260506173017 59 292 6.0 12.0 0.00 0.01 0.00 1 1019.5
20260506172917 59 270 6.0 12.0 0.00 0.01 0.00 1 1019.5
20260506172816 59 263 6.0 12.0 0.00 0.01 0.00 1 1019.5
20260506172716 59 282 6.0 12.0 0.00 0.01 0.00 1 1019.5
20260506172617 59 0 6.0 12.0 0.00 0.01 0.00 1 1019.5
20260506172517 59 263 6.0 12.0 0.00 0.01 0.00 1 1019.6
20260506172417 59 275 6.0 12.0 0.00 0.01 0.00 1 1019.5
20260506172317 59 212 5.0 10.0 0.00 0.01 0.00 1 1019.5
20260506172217 59 230 5.0 10.0 0.00 0.01 0.00 1 1019.5
20260506172116 59 213 5.0 10.0 0.00 0.01 0.00 1 1019.5
20260506172013 59 265 5.0 10.0 0.00 0.01 0.00 1 1019.5
20260506171913 59 276 5.0 10.0 0.00 0.01 0.00 1 1019.5
20260506171812 59 224 5.0 10.0 0.00 0.01 0.00 1 1019.6
20260506171712 59 290 5.0 10.0 0.00 0.01 0.00 1 1019.5
20260506171612 59 263 5.0 10.0 0.00 0.01 0.00 1 1019.5
20260506171513 59 273 5.0 10.0 0.00 0.01 0.00 1 1019.5
20260506171413 59 281 5.0 10.0 0.00 0.01 0.00 1 1019.5
20260506171313 59 248 5.0 10.0 0.00 0.01 0.00 1 1019.5
20260506171212 59 293 5.0 9.0 0.00 0.01 0.00 1 1019.5
20260506171112 58 257 5.0 9.0 0.00 0.01 0.00 1 1019.5
20260506171012 58 286 5.0 9.0 0.00 0.01 0.00 1 1019.5
20260506170913 58 273 5.0 9.0 0.00 0.01 0.00 1 1019.6
20260506170813 58 258 5.0 9.0 0.00 0.01 0.00 1 1019.6
20260506170713 58 228 5.0 8.0 0.00 0.01 0.00 1 1019.6
20260506170612 58 245 5.0 9.0 0.00 0.01 0.00 1 1019.6
20260506170512 58 271 4.0 9.0 0.00 0.01 0.00 1 1019.6
20260506170413 58 240 4.0 9.0 0.00 0.01 0.00 1 1019.6
20260506170313 58 232 4.0 9.0 0.00 0.01 0.00 1 1019.6
20260506170213 58 244 4.0 9.0 0.00 0.01 0.00 1 1019.6
20260506170117 58 267 4.0 9.0 0.00 0.01 0.00 1 1019.6
20260506170113 58 290 4.0 9.0 0.00 0.01 0.00 1 1019.6
20260506165917 58 263 4.0 9.0 0.00 0.01 0.00 1 1019.6
20260506165913 58 284 4.0 9.0 0.00 0.01 0.00 1 1019.6
20260506165709 58 342 4.0 9.0 0.00 0.01 0.00 1 1019.5
20260506165609 58 270 4.0 9.0 0.00 0.01 0.00 1 1019.5
20260506165508 58 263 4.0 9.0 0.00 0.01 0.00 1 1019.5
20260506165408 58 256 4.0 9.0 0.00 0.01 0.00 1 1019.5
20260506165317 58 253 5.0 9.0 0.00 0.01 0.00 1 1019.6
20260506165313 58 279 4.0 9.0 0.00 0.01 0.00 1 1019.5
20260506165108 58 270 5.0 9.0 0.00 0.01 0.00 1 1019.6
20260506165008 58 267 5.0 9.0 0.00 0.01 0.00 1 1019.6
20260506164909 58 237 5.0 9.0 0.00 0.01 0.00 1 1019.6
20260506164809 58 246 5.0 9.0 0.00 0.01 0.00 1 1019.5
20260506164709 58 279 5.0 9.0 0.00 0.01 0.00 1 1019.6
20260506164608 58 272 5.0 9.0 0.00 0.01 0.00 1 1019.6
20260506164508 58 272 5.0 9.0 0.00 0.01 0.00 1 1019.5
20260506164408 58 279 5.0 9.0 0.00 0.01 0.00 1 1019.5
20260506164309 58 263 5.0 9.0 0.00 0.01 0.00 1 1019.5
20260506164209 58 290 5.0 8.0 0.00 0.01 0.00 1 1019.6
20260506164117 58 275 5.0 8.0 0.00 0.01 0.00 1 1019.5
20260506164113 58 279 5.0 8.0 0.00 0.01 0.00 1 1019.5
20260506163907 58 269 5.0 8.0 0.00 0.01 0.00 1 1019.5
20260506163806 58 263 4.0 8.0 0.00 0.01 0.00 1 1019.5
20260506163706 58 258 4.0 8.0 0.00 0.01 0.00 1 1019.5
20260506163606 58 228 4.0 8.0 0.00 0.01 0.00 1 1019.5
20260506163506 58 276 4.0 8.0 0.00 0.01 0.00 1 1019.5
20260506163407 58 278 4.0 8.0 0.00 0.01 0.00 1 1019.5
20260506163307 58 251 4.0 8.0 0.00 0.01 0.00 1 1019.5
20260506163207 58 250 4.0 8.0 0.00 0.01 0.00 1 1019.5
20260506163107 58 243 3.0 8.0 0.00 0.01 0.00 1 1019.5
20260506163103 58 234 3.0 8.0 0.00 0.01 0.00 1 1019.5
20260506162859 58 225 3.0 8.0 0.00 0.01 0.00 1 1019.5
20260506162759 58 249 3.0 7.0 0.00 0.01 0.00 1 1019.5
20260506162658 58 282 3.0 7.0 0.00 0.01 0.00 1 1019.5
20260506162558 58 254 3.0 7.0 0.00 0.01 0.00 1 1019.5
20260506162455 58 279 3.0 7.0 0.00 0.01 0.00 1 1019.4
20260506162355 58 269 3.0 7.0 0.00 0.01 0.00 1 1019.5
20260506162255 58 224 2.0 7.0 0.00 0.01 0.00 1 1019.5
20260506162153 57 268 2.0 7.0 0.00 0.01 0.00 1 1019.5
20260506162050 57 268 3.0 7.0 0.00 0.01 0.00 1 1019.5
20260506161947 57 266 3.0 7.0 0.00 0.01 0.00 1 1019.5
20260506161846 57 277 3.0 8.0 0.00 0.01 0.00 1 1019.5
20260506161747 57 283 3.0 8.0 0.00 0.01 0.00 1 1019.5
20260506161646 57 319 3.0 8.0 0.00 0.01 0.00 1 1019.5
20260506161544 57 279 3.0 8.0 0.00 0.01 0.00 1 1019.6
20260506161440 57 263 3.0 8.0 0.00 0.01 0.00 1 1019.6
20260506161340 57 277 4.0 8.0 0.00 0.01 0.00 1 1019.6
20260506161241 57 277 4.0 8.0 0.00 0.01 0.00 1 1019.6
20260506161140 57 303 4.0 8.0 0.00 0.01 0.00 1 1019.5
20260506161038 57 257 4.0 8.0 0.00 0.01 0.00 1 1019.5
20260506160933 57 244 4.0 8.0 0.00 0.01 0.00 1 1019.5
20260506160833 57 225 4.0 8.0 0.00 0.01 0.00 1 1019.5
20260506160733 57 254 4.0 8.0 0.00 0.01 0.00 1 1019.5
20260506160632 57 279 4.0 8.0 0.00 0.01 0.00 1 1019.5
20260506160532 57 262 4.0 8.0 0.00 0.01 0.00 1 1019.5
20260506160425 57 257 4.0 8.0 0.00 0.01 0.00 1 1019.5
20260506160324 57 257 3.0 8.0 0.00 0.01 0.00 1 1019.4
20260506160224 57 269 3.0 8.0 0.00 0.01 0.00 1 1019.4
20260506160125 57 290 4.0 8.0 0.00 0.01 0.00 1 1019.4
20260506160024 57 264 3.0 7.0 0.00 0.01 0.00 1 1019.5
20260506155923 57 236 3.0 7.0 0.00 0.01 0.00 1 1019.5
20260506155822 57 231 3.0 7.0 0.00 0.01 0.00 1 1019.5
20260506155723 57 223 3.0 7.0 0.00 0.01 0.00 1 1019.5
20260506155621 57 261 3.0 7.0 0.00 0.01 0.00 1 1019.5
20260506155516 57 264 3.0 7.0 0.00 0.01 0.00 1 1019.4
20260506155411 57 254 3.0 6.0 0.00 0.01 0.00 1 1019.5
20260506155311 57 280 3.0 6.0 0.00 0.01 0.00 1 1019.5
20260506155211 57 288 3.0 6.0 0.00 0.01 0.00 1 1019.5
20260506155110 57 277 3.0 6.0 0.00 0.01 0.00 1 1019.5
20260506155010 57 241 3.0 6.0 0.00 0.01 0.00 1 1019.5
20260506154909 57 239 3.0 6.0 0.00 0.01 0.00 1 1019.4
20260506154808 57 255 3.0 6.0 0.00 0.01 0.00 1 1019.4
20260506154706 57 244 2.0 6.0 0.00 0.01 0.00 1 1019.5
20260506154606 57 273 2.0 6.0 0.00 0.01 0.00 1 1019.5
20260506154504 57 271 2.0 6.0 0.00 0.01 0.00 1 1019.5
20260506154358 57 287 2.0 6.0 0.00 0.01 0.00 1 1019.5
20260506154258 57 281 2.0 7.0 0.00 0.01 0.00 1 1019.5
20260506154211 57 281 2.0 7.0 0.00 0.01 0.00 1 1019.5
20260506154102 57 296 2.0 7.0 0.00 0.01 0.00 1 1019.5
20260506153854 57 295 2.0 7.0 0.00 0.01 0.00 1 1019.5
20260506153754 57 279 2.0 7.0 0.00 0.01 0.00 1 1019.5
20260506153654 57 278 2.0 7.0 0.00 0.01 0.00 1 1019.5
20260506153555 57 284 2.0 7.0 0.00 0.01 0.00 1 1019.4
20260506153452 57 283 3.0 7.0 0.00 0.01 0.00 1 1019.4
20260506153346 57 283 2.0 7.0 0.00 0.01 0.00 1 1019.4
20260506153247 57 278 2.0 6.0 0.00 0.01 0.00 1 1019.4
20260506153147 57 300 2.0 6.0 0.00 0.01 0.00 1 1019.4
20260506153054 57 300 2.0 6.0 0.00 0.01 0.00 1 1019.4
20260506153050 57 275 2.0 6.0 0.00 0.01 0.00 1 1019.4
20260506152842 57 271 2.0 6.0 0.00 0.01 0.00 1 1019.4
20260506152748 57 277 2.0 6.0 0.00 0.01 0.00 1 1019.4
20260506152744 57 290 2.0 6.0 0.00 0.01 0.00 1 1019.4
20260506152541 57 257 2.0 6.0 0.00 0.01 0.00 1 1019.4
20260506152440 57 273 2.0 6.0 0.00 0.01 0.00 1 1019.4
20260506152341 57 273 3.0 6.0 0.00 0.01 0.00 1 1019.4
20260506152239 57 273 3.0 6.0 0.00 0.01 0.00 1 1019.4
20260506152139 57 273 3.0 6.0 0.00 0.01 0.00 1 1019.4
20260506152039 56 289 3.0 6.0 0.00 0.01 0.00 1 1019.4
20260506151939 56 266 3.0 6.0 0.00 0.01 0.00 1 1019.4
20260506151839 56 256 4.0 6.0 0.00 0.01 0.00 1 1019.4
20260506151738 56 258 4.0 8.0 0.00 0.01 0.00 1 1019.3
20260506151638 57 253 3.0 8.0 0.00 0.01 0.00 1 1019.3
20260506151539 57 279 3.0 8.0 0.00 0.01 0.00 1 1019.3
20260506151439 56 263 3.0 8.0 0.00 0.01 0.00 1 1019.4
20260506151336 56 276 3.0 8.0 0.00 0.01 0.00 1 1019.3
20260506151236 56 273 3.0 8.0 0.00 0.01 0.00 1 1019.3
20260506151137 56 275 3.0 8.0 0.00 0.01 0.00 1 1019.3
20260506151037 56 250 3.0 8.0 0.00 0.01 0.00 1 1019.3
20260506150934 57 281 3.0 8.0 0.00 0.01 0.00 1 1019.3
20260506150841 57 263 2.0 6.0 0.00 0.01 0.00 1 1019.3
20260506150836 57 281 2.0 8.0 0.00 0.01 0.00 1 1019.3
20260506150632 56 299 3.0 6.0 0.00 0.01 0.00 1 1019.3
20260506150532 57 283 3.0 8.0 0.00 0.01 0.00 1 1019.3
20260506150432 56 275 3.0 8.0 0.00 0.01 0.00 1 1019.3
20260506150333 57 309 3.0 8.0 0.00 0.01 0.00 1 1019.3
20260506150232 56 293 3.0 8.0 0.00 0.01 0.00 1 1019.3
20260506150128 56 266 4.0 8.0 0.00 0.01 0.00 1 1019.3
20260506150026 56 276 4.0 8.0 0.00 0.01 0.00 1 1019.3
20260506145926 56 283 4.0 8.0 0.00 0.01 0.00 1 1019.2
20260506145826 56 297 4.0 8.0 0.00 0.01 0.00 1 1019.2
20260506145726 56 294 4.0 8.0 0.00 0.01 0.00 1 1019.2
20260506145624 56 284 4.0 8.0 0.00 0.01 0.00 1 1019.2
20260506145533 56 272 3.0 8.0 0.00 0.01 0.00 1 1019.2
20260506145529 56 283 4.0 8.0 0.00 0.01 0.00 1 1019.3
20260506145329 56 288 3.0 8.0 0.00 0.01 0.00 1 1019.2
20260506145324 56 273 3.0 8.0 0.00 0.01 0.00 1 1019.2
20260506145114 56 274 3.0 8.0 0.00 0.01 0.00 1 1019.2
20260506145014 56 281 3.0 8.0 0.00 0.01 0.00 1 1019.2
20260506144914 56 277 3.0 8.0 0.00 0.01 0.00 1 1019.2
20260506144815 56 285 3.0 8.0 0.00 0.01 0.00 1 1019.2
20260506144714 56 286 3.0 7.0 0.00 0.01 0.00 1 1019.3
20260506144608 56 288 3.0 7.0 0.00 0.01 0.00 1 1019.3
20260506144523 56 276 3.0 7.0 0.00 0.01 0.00 1 1019.2
20260506144412 56 244 3.0 7.0 0.00 0.01 0.00 1 1019.2
20260506144208 56 286 3.0 7.0 0.00 0.01 0.00 1 1019.2
20260506144113 56 286 3.0 6.0 0.00 0.01 0.00 1 1019.2
20260506144109 56 287 3.0 7.0 0.00 0.01 0.00 1 1019.2
20260506143904 56 270 3.0 6.0 0.00 0.01 0.00 1 1019.2
20260506143804 56 250 3.0 7.0 0.00 0.01 0.00 1 1019.2
20260506143703 56 275 3.0 7.0 0.00 0.01 0.00 1 1019.2
20260506143559 56 275 3.0 7.0 0.00 0.01 0.00 1 1019.2
20260506143456 56 262 3.0 7.0 0.00 0.01 0.00 1 1019.2
20260506143356 56 279 3.0 7.0 0.00 0.01 0.00 1 1019.2
20260506143256 56 250 3.0 7.0 0.00 0.01 0.00 1 1019.2
20260506143156 56 225 4.0 7.0 0.00 0.01 0.00 1 1019.2
20260506143050 56 269 4.0 9.0 0.00 0.01 0.00 1 1019.1
20260506142950 56 257 4.0 9.0 0.00 0.01 0.00 1 1019.2
20260506142851 56 273 4.0 9.0 0.00 0.01 0.00 1 1019.2
20260506142750 56 242 4.0 9.0 0.00 0.01 0.00 1 1019.2
20260506142650 56 252 5.0 9.0 0.00 0.01 0.00 1 1019.1
20260506142545 56 267 5.0 9.0 0.00 0.01 0.00 1 1019.2
20260506142444 56 270 5.0 9.0 0.00 0.01 0.00 1 1019.1
20260506142344 56 295 5.0 9.0 0.00 0.01 0.00 1 1019.1
20260506142244 56 277 5.0 9.0 0.00 0.01 0.00 1 1019.1
20260506142144 56 279 4.0 9.0 0.00 0.01 0.00 1 1019.1
20260506142038 56 284 4.0 8.0 0.00 0.01 0.00 1 1019.1
20260506141939 56 290 4.0 8.0 0.00 0.01 0.00 1 1019.0
20260506141838 56 265 5.0 9.0 0.00 0.01 0.00 1 1019.0
20260506141738 56 275 5.0 9.0 0.00 0.01 0.00 1 1019.1
20260506141641 56 278 5.0 9.0 0.00 0.01 0.00 1 1019.0
20260506141637 56 278 5.0 9.0 0.00 0.01 0.00 1 1019.0
20260506141432 56 281 5.0 9.0 0.00 0.01 0.00 1 1019.0
20260506141332 56 263 6.0 9.0 0.00 0.01 0.00 1 1019.0
20260506141232 56 264 6.0 9.0 0.00 0.01 0.00 1 1019.0
20260506141132 56 273 5.0 9.0 0.00 0.01 0.00 1 1019.0
20260506141026 56 270 5.0 9.0 0.00 0.01 0.00 1 1018.9
20260506140926 56 260 5.0 9.0 0.00 0.01 0.00 1 1018.9
20260506140827 56 263 4.0 9.0 0.00 0.01 0.00 1 1018.9
20260506140726 56 273 4.0 9.0 0.00 0.01 0.00 1 1018.9
20260506140626 56 284 3.0 9.0 0.00 0.01 0.00 1 1018.9
20260506140521 56 291 3.0 8.0 0.00 0.01 0.00 1 1018.9
20260506140421 56 279 3.0 8.0 0.00 0.01 0.00 1 1018.9
20260506140320 56 256 3.0 7.0 0.00 0.01 0.00 1 1018.8
20260506140220 56 294 3.0 6.0 0.00 0.01 0.00 1 1018.9
20260506140120 56 282 3.0 6.0 0.00 0.01 0.00 1 1018.8
20260506140015 56 226 3.0 6.0 0.00 0.01 0.00 1 1018.8
20260506135914 56 284 3.0 7.0 0.00 0.01 0.00 1 1018.9
20260506135814 56 274 3.0 7.0 0.00 0.01 0.00 1 1018.8
20260506135714 56 260 3.0 7.0 0.00 0.01 0.00 1 1018.8
20260506135629 56 292 3.0 7.0 0.00 0.01 0.00 1 1018.7
20260506135625 56 294 3.0 7.0 0.00 0.01 0.00 1 1018.8
20260506135516 56 290 3.0 7.0 0.00 0.01 0.00 1 1018.8
20260506135208 56 286 3.0 7.0 0.00 0.01 0.00 1 1018.7
20260506135108 56 278 3.0 7.0 0.00 0.01 0.00 1 1018.7
20260506135004 56 282 2.0 7.0 0.00 0.01 0.00 1 1018.7
20260506134904 56 294 2.0 7.0 0.00 0.01 0.00 1 1018.7
20260506134804 56 290 2.0 7.0 0.00 0.01 0.00 1 1018.7
20260506134704 56 263 2.0 7.0 0.00 0.01 0.00 1 1018.6
20260506134602 56 274 2.0 7.0 0.00 0.01 0.00 1 1018.7
20260506134456 56 269 2.0 4.0 0.00 0.01 0.00 1 1018.6
20260506134357 56 296 2.0 4.0 0.00 0.01 0.00 1 1018.6
20260506134257 56 296 2.0 5.0 0.00 0.01 0.00 1 1018.7
20260506134156 56 297 2.0 6.0 0.00 0.01 0.00 1 1018.6
20260506134056 56 279 2.0 6.0 0.00 0.01 0.00 1 1018.7
20260506133951 56 279 2.0 6.0 0.00 0.01 0.00 1 1018.6
20260506133851 56 292 2.0 6.0 0.00 0.01 0.00 1 1018.7
20260506133750 56 296 2.0 6.0 0.00 0.01 0.00 1 1018.7
20260506133650 56 304 2.0 6.0 0.00 0.01 0.00 1 1018.6
20260506133550 56 279 2.0 6.0 0.00 0.01 0.00 1 1018.6
20260506133445 56 301 2.0 6.0 0.00 0.01 0.00 1 1018.6
20260506133344 56 319 3.0 6.0 0.00 0.01 0.00 1 1018.6
20260506133244 56 307 2.0 6.0 0.00 0.01 0.00 1 1018.6
20260506133144 56 306 2.0 6.0 0.00 0.01 0.00 1 1018.6
20260506133043 56 297 2.0 6.0 0.00 0.01 0.00 1 1018.6
20260506132939 56 321 2.0 6.0 0.00 0.01 0.00 1 1018.6
20260506132839 56 300 2.0 6.0 0.00 0.01 0.00 1 1018.6
20260506132738 56 299 2.0 6.0 0.00 0.01 0.00 1 1018.6
20260506132638 56 272 2.0 6.0 0.00 0.01 0.00 1 1018.6
20260506132538 56 271 2.0 6.0 0.00 0.01 0.00 1 1018.5
20260506132436 56 279 2.0 6.0 0.00 0.01 0.00 1 1018.6
20260506132336 56 275 2.0 6.0 0.00 0.01 0.00 1 1018.6
20260506132237 56 275 2.0 6.0 0.00 0.01 0.00 1 1018.6
20260506132134 56 275 2.0 6.0 0.00 0.01 0.00 1 1018.6
20260506132032 56 275 2.0 6.0 0.00 0.01 0.00 1 1018.6
20260506131932 56 275 2.0 6.0 0.00 0.01 0.00 1 1018.5
20260506131831 56 301 2.0 6.0 0.00 0.01 0.00 1 1018.6
20260506131730 56 301 2.0 6.0 0.00 0.01 0.00 1 1018.5
20260506131639 56 275 2.0 6.0 0.00 0.01 0.00 1 1018.5
20260506131635 56 275 3.0 6.0 0.00 0.01 0.00 1 1018.5
20260506131630 56 283 2.0 6.0 0.00 0.01 0.00 1 1018.5
20260506131321 55 277 2.0 6.0 0.00 0.01 0.00 1 1018.5
20260506131221 56 285 2.0 6.0 0.00 0.01 0.00 1 1018.5
20260506131120 56 286 2.0 6.0 0.00 0.01 0.00 1 1018.5
20260506131020 56 275 2.0 6.0 0.00 0.01 0.00 1 1018.5
20260506130920 56 277 2.0 6.0 0.00 0.01 0.00 1 1018.4
20260506130818 55 275 2.0 6.0 0.00 0.01 0.00 1 1018.4
20260506130719 55 260 2.0 4.0 0.00 0.01 0.00 1 1018.4
20260506130616 55 260 2.0 4.0 0.00 0.01 0.00 1 1018.4
20260506130514 55 260 2.0 4.0 0.00 0.01 0.00 1 1018.4
20260506130410 55 283 2.0 4.0 0.00 0.01 0.00 1 1018.4
20260506130308 55 286 2.0 4.0 0.00 0.01 0.00 1 1018.4
20260506130208 55 286 2.0 4.0 0.00 0.01 0.00 1 1018.4
20260506130108 55 304 2.0 4.0 0.00 0.01 0.00 1 1018.4
20260506130008 55 303 3.0 5.0 0.00 0.01 0.00 1 1018.4
20260506125905 55 289 3.0 6.0 0.00 0.01 0.00 1 1018.4
20260506125802 55 288 3.0 6.0 0.00 0.01 0.00 1 1018.4
20260506125702 55 293 3.0 6.0 0.00 0.01 0.00 1 1018.4
20260506125602 55 307 3.0 6.0 0.00 0.01 0.00 1 1018.4
20260506125502 55 290 3.0 6.0 0.00 0.01 0.00 1 1018.4
20260506125402 55 287 3.0 8.0 0.00 0.01 0.00 1 1018.4
20260506125307 55 288 3.0 8.0 0.00 0.01 0.00 1 1018.4
20260506125305 55 288 3.0 8.0 0.00 0.01 0.00 1 1018.4
20260506125058 55 282 4.0 8.0 0.00 0.01 0.00 1 1018.4
20260506124956 55 272 4.0 8.0 0.00 0.01 0.00 1 1018.4
20260506124856 56 292 4.0 8.0 0.00 0.01 0.00 1 1018.4
20260506124754 55 289 4.0 8.0 0.00 0.01 0.00 1 1018.4
20260506124654 56 284 4.0 8.0 0.00 0.01 0.00 1 1018.3
20260506124552 56 284 4.0 8.0 0.00 0.01 0.00 1 1018.4
20260506124450 56 276 4.0 8.0 0.00 0.01 0.00 1 1018.3
20260506124344 56 286 4.0 9.0 0.00 0.01 0.00 1 1018.3
20260506124244 56 277 4.0 9.0 0.00 0.01 0.00 1 1018.3
20260506124144 56 290 4.0 9.0 0.00 0.01 0.00 1 1018.3
20260506124044 56 288 4.0 9.0 0.00 0.01 0.00 1 1018.3
20260506123944 56 279 4.0 9.0 0.00 0.01 0.00 1 1018.3
20260506123840 56 281 4.0 9.0 0.00 0.01 0.00 1 1018.4
20260506123738 56 303 4.0 9.0 0.00 0.01 0.00 1 1018.3
20260506123639 56 271 4.0 9.0 0.00 0.01 0.00 1 1018.3
20260506123538 56 279 4.0 9.0 0.00 0.01 0.00 1 1018.3
20260506123438 56 283 3.0 9.0 0.00 0.01 0.00 1 1018.3
20260506123332 56 267 3.0 7.0 0.00 0.01 0.00 1 1018.3
20260506123232 56 273 3.0 7.0 0.00 0.01 0.00 1 1018.3
20260506123132 56 284 3.0 7.0 0.00 0.01 0.00 1 1018.3
20260506123032 56 284 3.0 7.0 0.00 0.01 0.00 1 1018.3
20260506122932 56 311 3.0 7.0 0.00 0.01 0.00 1 1018.3
20260506122826 56 288 3.0 7.0 0.00 0.01 0.00 1 1018.3
20260506122726 56 287 3.0 7.0 0.00 0.01 0.00 1 1018.3
20260506122626 56 289 3.0 7.0 0.00 0.01 0.00 1 1018.3
20260506122526 56 288 3.0 7.0 0.00 0.01 0.00 1 1018.3
20260506122426 56 294 3.0 7.0 0.00 0.01 0.00 1 1018.3
20260506122320 56 301 3.0 7.0 0.00 0.01 0.00 1 1018.3
20260506122220 56 293 3.0 7.0 0.00 0.01 0.00 1 1018.2
20260506122120 56 277 2.0 7.0 0.00 0.01 0.00 1 1018.2
20260506122020 56 279 2.0 7.0 0.00 0.01 0.00 1 1018.2
20260506121920 56 298 2.0 7.0 0.00 0.01 0.00 1 1018.2
20260506121817 56 284 2.0 7.0 0.00 0.01 0.00 1 1018.2
20260506121717 56 287 2.0 7.0 0.00 0.01 0.00 1 1018.2
20260506121618 56 294 2.0 4.0 0.00 0.01 0.00 1 1018.2
20260506121516 56 290 2.0 4.0 0.00 0.01 0.00 1 1018.1
20260506121414 56 291 2.0 6.0 0.00 0.01 0.00 1 1018.2
20260506121308 56 292 3.0 8.0 0.00 0.01 0.00 1 1018.2
20260506121208 56 292 3.0 8.0 0.00 0.01 0.00 1 1018.1
20260506121108 56 292 3.0 8.0 0.00 0.01 0.00 1 1018.1
20260506121008 56 277 3.0 8.0 0.00 0.01 0.00 1 1018.1
20260506120907 56 300 3.0 8.0 0.00 0.01 0.00 1 1018.1
20260506120808 56 294 2.0 8.0 0.00 0.01 0.00 1 1018.1
20260506120706 56 296 3.0 8.0 0.00 0.01 0.00 1 1018.2
20260506120604 56 296 3.0 8.0 0.00 0.01 0.00 1 1018.1
20260506120504 56 292 3.0 8.0 0.00 0.01 0.00 1 1018.2
20260506120403 56 300 3.0 8.0 0.00 0.01 0.00 1 1018.1
20260506120304 56 286 2.0 6.0 0.00 0.01 0.00 1 1018.1
20260506120204 56 298 2.0 6.0 0.00 0.01 0.00 1 1018.1
20260506120104 56 298 3.0 6.0 0.00 0.01 0.00 1 1018.2
20260506120004 56 279 3.0 7.0 0.00 0.01 0.00 1 1018.1
20260506115903 56 286 3.0 7.0 0.00 0.01 0.00 1 1018.1
20260506115804 56 284 3.0 7.0 0.00 0.01 0.00 1 1018.1
20260506115704 56 285 3.0 7.0 0.00 0.01 0.00 1 1018.1
20260506115604 56 269 3.0 7.0 0.00 0.01 0.00 1 1018.1
20260506115504 56 295 3.0 7.0 0.00 0.01 0.00 1 1018.2
20260506115404 56 275 3.0 7.0 0.00 0.01 0.00 1 1018.1
20260506115306 56 275 3.0 7.0 0.00 0.01 0.00 1 1018.1
20260506115204 56 281 3.0 7.0 0.00 0.01 0.00 1 1018.1
20260506115101 56 275 2.0 7.0 0.00 0.01 0.00 1 1018.1
20260506115002 56 283 2.0 6.0 0.00 0.01 0.00 1 1018.1
20260506114902 56 285 2.0 4.0 0.00 0.01 0.00 1 1018.1
20260506114800 56 284 2.0 7.0 0.00 0.01 0.00 1 1018.1
20260506114700 56 282 3.0 7.0 0.00 0.01 0.00 1 1018.1
20260506114600 56 316 3.0 7.0 0.00 0.01 0.00 1 1018.1
20260506114500 56 280 3.0 7.0 0.00 0.01 0.00 1 1018.1
20260506114400 56 289 3.0 7.0 0.00 0.01 0.00 1 1018.1
20260506114300 56 290 3.0 7.0 0.00 0.01 0.00 1 1018.1
20260506114200 56 292 3.0 7.0 0.00 0.01 0.00 1 1018.1
20260506114100 56 295 3.0 7.0 0.00 0.01 0.00 1 1018.1
20260506114000 56 288 3.0 7.0 0.00 0.01 0.00 1 1018.1
20260506113859 56 275 3.0 7.0 0.00 0.01 0.00 1 1018.1
20260506113800 56 271 3.0 7.0 0.00 0.01 0.00 1 1018.1
20260506113700 56 294 3.0 7.0 0.00 0.01 0.00 1 1018.0
20260506113600 56 296 3.0 7.0 0.00 0.01 0.00 1 1018.1
20260506113500 56 275 3.0 7.0 0.00 0.01 0.00 1 1018.0
20260506113357 56 273 3.0 7.0 0.00 0.01 0.00 1 1018.0
20260506113257 56 287 3.0 7.0 0.00 0.01 0.00 1 1018.0
20260506113158 56 288 4.0 7.0 0.00 0.01 0.00 1 1017.9
20260506113056 56 267 4.0 7.0 0.00 0.01 0.00 1 1017.9
20260506112956 56 277 4.0 7.0 0.00 0.01 0.00 1 1017.9
20260506112856 56 281 3.0 7.0 0.00 0.01 0.00 1 1017.9
20260506112756 56 280 3.0 7.0 0.00 0.01 0.00 1 1017.9
20260506112654 56 298 3.0 7.0 0.00 0.01 0.00 1 1017.9
20260506112554 56 289 3.0 7.0 0.00 0.01 0.00 1 1017.9
20260506112454 56 293 3.0 7.0 0.00 0.01 0.00 1 1017.9
20260506112354 56 288 3.0 7.0 0.00 0.01 0.00 1 1017.9
20260506112252 56 290 3.0 7.0 0.00 0.01 0.00 1 1017.8
20260506112152 56 279 4.0 7.0 0.00 0.01 0.00 1 1017.9
20260506112052 55 290 4.0 7.0 0.00 0.01 0.00 1 1017.9
20260506111951 55 298 4.0 7.0 0.00 0.01 0.00 1 1017.9
20260506111852 55 292 4.0 7.0 0.00 0.01 0.00 1 1017.9
20260506111752 55 279 4.0 7.0 0.00 0.01 0.00 1 1017.9
20260506111650 55 279 4.0 7.0 0.00 0.01 0.00 1 1017.9
20260506111550 55 274 4.0 7.0 0.00 0.01 0.00 1 1017.9
20260506111449 55 279 4.0 7.0 0.00 0.01 0.00 1 1017.9
20260506111350 55 291 4.0 7.0 0.00 0.01 0.00 1 1017.8
20260506111250 55 288 4.0 8.0 0.00 0.01 0.00 1 1017.8
20260506111150 55 279 4.0 8.0 0.00 0.01 0.00 1 1017.8
20260506111050 55 286 4.0 8.0 0.00 0.01 0.00 1 1017.8
20260506110950 55 275 4.0 8.0 0.00 0.01 0.00 1 1017.8
20260506110849 55 282 4.0 8.0 0.00 0.01 0.00 1 1017.8
20260506110750 55 273 4.0 8.0 0.00 0.01 0.00 1 1017.8
20260506110649 55 284 4.0 8.0 0.00 0.01 0.00 1 1017.8
20260506110550 55 284 4.0 8.0 0.00 0.01 0.00 1 1017.8
20260506110450 55 281 4.0 8.0 0.00 0.01 0.00 1 1017.8
20260506110350 55 280 4.0 8.0 0.00 0.01 0.00 1 1017.8
20260506110303 55 286 4.0 7.0 0.00 0.01 0.00 1 1017.7
20260506110154 55 274 3.0 7.0 0.00 0.01 0.00 1 1017.7
20260506105949 56 281 3.0 7.0 0.00 0.01 0.00 1 1017.8
20260506105850 56 281 3.0 7.0 0.00 0.01 0.00 1 1017.7
20260506105744 56 279 3.0 7.0 0.00 0.01 0.00 1 1017.7
20260506105644 56 284 3.0 7.0 0.00 0.01 0.00 1 1017.7
20260506105544 56 309 3.0 8.0 0.00 0.01 0.00 1 1017.8
20260506105444 56 278 4.0 8.0 0.00 0.01 0.00 1 1017.7
20260506105343 56 279 4.0 9.0 0.00 0.01 0.00 1 1017.7
20260506105244 56 296 4.0 9.0 0.00 0.01 0.00 1 1017.7
20260506105153 56 248 4.0 9.0 0.00 0.01 0.00 1 1017.7
20260506105148 56 275 4.0 9.0 0.00 0.01 0.00 1 1017.7
20260506104944 56 297 5.0 9.0 0.00 0.01 0.00 1 1017.7
20260506104844 56 286 5.0 9.0 0.00 0.01 0.00 1 1017.7
20260506104744 56 296 5.0 9.0 0.00 0.01 0.00 1 1017.7
20260506104644 56 286 5.0 9.0 0.00 0.01 0.00 1 1017.7
20260506104538 56 279 5.0 9.0 0.00 0.01 0.00 1 1017.7
20260506104438 56 326 5.0 9.0 0.00 0.01 0.00 1 1017.7
20260506104346 56 284 4.0 8.0 0.00 0.01 0.00 1 1017.7
20260506104342 56 288 5.0 8.0 0.00 0.01 0.00 1 1017.7
20260506104138 56 286 5.0 8.0 0.00 0.01 0.00 1 1017.7
20260506104037 56 288 5.0 8.0 0.00 0.01 0.00 1 1017.7
20260506103938 56 278 5.0 8.0 0.00 0.01 0.00 1 1017.6
20260506103838 56 277 5.0 8.0 0.00 0.01 0.00 1 1017.6
20260506103738 56 285 5.0 8.0 0.00 0.01 0.00 1 1017.7
20260506103638 56 277 5.0 11.0 0.00 0.01 0.00 1 1017.7
20260506103537 56 272 5.0 11.0 0.00 0.01 0.00 1 1017.7
20260506103437 56 277 5.0 11.0 0.00 0.01 0.00 1 1017.7
20260506103334 56 270 5.0 11.0 0.00 0.01 0.00 1 1017.7
20260506103234 56 267 5.0 11.0 0.00 0.01 0.00 1 1017.7
20260506103134 56 286 5.0 11.0 0.00 0.01 0.00 1 1017.7
20260506103034 56 296 5.0 11.0 0.00 0.01 0.00 1 1017.7
20260506102933 56 273 5.0 11.0 0.00 0.01 0.00 1 1017.7
20260506102833 56 295 5.0 11.0 0.00 0.01 0.00 1 1017.6
20260506102734 56 289 4.0 11.0 0.00 0.01 0.00 1 1017.7
20260506102633 55 288 4.0 9.0 0.00 0.01 0.00 1 1017.7
20260506102534 56 279 4.0 9.0 0.00 0.01 0.00 1 1017.7
20260506102434 55 280 4.0 9.0 0.00 0.01 0.00 1 1017.7
20260506102334 55 281 4.0 9.0 0.00 0.01 0.00 1 1017.7
20260506102234 55 279 5.0 9.0 0.00 0.01 0.00 1 1017.7
20260506102133 55 284 5.0 9.0 0.00 0.01 0.00 1 1017.7
20260506102034 55 281 4.0 9.0 0.00 0.01 0.00 1 1017.6
20260506101934 55 267 4.0 7.0 0.00 0.02 0.00 1 1017.6
20260506101834 55 269 4.0 7.0 0.00 0.02 0.00 1 1017.6
20260506101734 55 281 5.0 7.0 0.00 0.02 0.00 1 1017.6
20260506101634 55 279 4.0 8.0 0.00 0.02 0.00 1 1017.6
20260506101534 55 286 4.0 8.0 0.00 0.02 0.00 1 1017.6
20260506101430 55 255 4.0 8.0 0.00 0.02 0.00 1 1017.6
20260506101330 55 279 4.0 8.0 0.00 0.02 0.00 1 1017.6
20260506101230 55 267 4.0 8.0 0.00 0.02 0.00 1 1017.6
20260506101129 55 281 4.0 8.0 0.00 0.02 0.00 1 1017.6
20260506101029 55 269 4.0 8.0 0.00 0.02 0.00 1 1017.6
20260506100930 55 279 4.0 8.0 0.00 0.02 0.00 1 1017.6
20260506100830 55 276 4.0 8.0 0.00 0.02 0.00 1 1017.6
20260506100730 55 276 4.0 8.0 0.00 0.02 0.00 1 1017.6
20260506100630 55 272 4.0 8.0 0.00 0.02 0.00 1 1017.5
20260506100550 55 304 4.0 7.0 0.00 0.02 0.00 1 1017.5
20260506100430 55 269 4.0 7.0 0.00 0.02 0.00 1 1017.6
20260506100330 55 259 4.0 7.0 0.00 0.02 0.00 1 1017.5
20260506100230 55 286 4.0 7.0 0.00 0.02 0.00 1 1017.6
20260506100130 55 276 4.0 7.0 0.00 0.02 0.00 1 1017.6
20260506100030 55 283 4.0 8.0 0.00 0.02 0.00 1 1017.5
20260506095929 55 278 4.0 8.0 0.00 0.02 0.00 1 1017.6
20260506095830 55 286 4.0 8.0 0.00 0.02 0.00 1 1017.6
20260506095730 56 292 4.0 8.0 0.00 0.02 0.00 1 1017.6
20260506095630 55 281 4.0 8.0 0.00 0.02 0.00 1 1017.6
20260506095525 55 277 4.0 8.0 0.00 0.02 0.00 1 1017.5
20260506095426 55 286 4.0 8.0 0.00 0.02 0.00 1 1017.5
20260506095326 55 286 4.0 9.0 0.00 0.02 0.00 1 1017.6
20260506095226 55 269 4.0 9.0 0.00 0.02 0.00 1 1017.6
20260506095126 55 286 4.0 9.0 0.00 0.02 0.00 1 1017.6
20260506095023 55 290 3.0 9.0 0.00 0.02 0.00 1 1017.6
20260506094924 55 274 3.0 9.0 0.00 0.02 0.00 1 1017.6
20260506094824 56 294 3.0 9.0 0.00 0.02 0.00 1 1017.6
20260506094732 56 308 3.0 9.0 0.00 0.02 0.00 1 1017.6
20260506094728 56 282 3.0 9.0 0.00 0.02 0.00 1 1017.6
20260506094532 56 257 3.0 9.0 0.00 0.02 0.00 1 1017.7
20260506094528 56 288 3.0 9.0 0.00 0.02 0.00 1 1017.6
20260506094324 56 279 3.0 9.0 0.00 0.02 0.00 1 1017.7
20260506094223 56 279 3.0 9.0 0.00 0.02 0.00 1 1017.7
20260506094122 56 286 4.0 9.0 0.00 0.02 0.00 1 1017.7
20260506094022 56 259 4.0 9.0 0.00 0.02 0.00 1 1017.7
20260506093922 56 271 4.0 9.0 0.00 0.02 0.00 1 1017.7
20260506093820 56 290 4.0 9.0 0.00 0.02 0.00 1 1017.7
20260506093720 56 294 4.0 9.0 0.00 0.02 0.00 1 1017.7
20260506093619 56 281 4.0 9.0 0.00 0.02 0.00 1 1017.7
20260506093519 56 307 4.0 9.0 0.00 0.02 0.00 1 1017.6
20260506093420 56 276 5.0 9.0 0.00 0.02 0.00 1 1017.7
20260506093320 56 277 5.0 10.0 0.00 0.02 0.00 1 1017.6
20260506093217 56 277 5.0 10.0 0.00 0.02 0.00 1 1017.6
20260506093117 56 275 5.0 10.0 0.00 0.02 0.00 1 1017.6
20260506093018 56 289 5.0 10.0 0.00 0.02 0.00 1 1017.6
20260506092918 56 281 5.0 10.0 0.00 0.02 0.00 1 1017.6
20260506092818 56 275 5.0 10.0 0.00 0.02 0.00 1 1017.6
20260506092717 56 301 5.0 10.0 0.00 0.02 0.00 1 1017.6
20260506092617 56 266 5.0 10.0 0.00 0.02 0.00 1 1017.5
20260506092517 56 270 5.0 10.0 0.00 0.02 0.00 1 1017.5
20260506092417 56 281 5.0 10.0 0.00 0.02 0.00 1 1017.5
20260506092318 56 286 5.0 9.0 0.00 0.02 0.00 1 1017.5
20260506092218 56 273 5.0 9.0 0.00 0.02 0.00 1 1017.5
20260506092116 56 286 5.0 9.0 0.00 0.02 0.00 1 1017.5
20260506092015 56 288 5.0 9.0 0.00 0.02 0.00 1 1017.5
20260506091914 56 284 5.0 9.0 0.00 0.02 0.00 1 1017.5
20260506091814 56 279 5.0 9.0 0.00 0.02 0.00 1 1017.5
20260506091714 56 294 5.0 9.0 0.00 0.02 0.00 1 1017.5
20260506091614 56 281 5.0 9.0 0.00 0.02 0.00 1 1017.5
20260506091514 56 252 5.0 9.0 0.00 0.02 0.00 1 1017.5
20260506091414 56 296 5.0 9.0 0.00 0.02 0.00 1 1017.5
20260506091322 56 292 5.0 9.0 0.00 0.02 0.00 1 1017.5
20260506091318 56 281 5.0 9.0 0.00 0.02 0.00 1 1017.5
20260506091113 56 259 4.0 9.0 0.00 0.02 0.00 1 1017.5
20260506091013 56 273 4.0 9.0 0.00 0.02 0.00 1 1017.5
20260506090910 56 277 4.0 9.0 0.00 0.02 0.00 1 1017.5
20260506090810 56 294 4.0 9.0 0.00 0.02 0.00 1 1017.5
20260506090710 56 279 4.0 8.0 0.00 0.02 0.00 1 1017.5
20260506090608 56 294 4.0 9.0 0.00 0.02 0.00 1 1017.5
20260506090507 56 265 4.0 9.0 0.00 0.02 0.00 1 1017.5
20260506090404 56 277 5.0 9.0 0.00 0.02 0.00 1 1017.5
20260506090301 56 280 5.0 9.0 0.00 0.02 0.00 1 1017.5
20260506090159 56 274 5.0 9.0 0.00 0.02 0.00 1 1017.5
20260506090100 56 265 5.0 9.0 0.00 0.02 0.00 1 1017.5
20260506085958 56 278 5.0 9.0 0.00 0.02 0.00 1 1017.5
20260506085857 56 306 5.0 11.0 0.00 0.02 0.00 1 1017.5
20260506085756 56 277 6.0 11.0 0.00 0.02 0.00 1 1017.6
20260506085655 56 288 6.0 11.0 0.00 0.02 0.00 1 1017.5
20260506085554 56 267 6.0 11.0 0.00 0.02 0.00 1 1017.5
20260506085450 56 286 6.0 11.0 0.00 0.02 0.00 1 1017.5
20260506085348 56 283 5.0 11.0 0.00 0.02 0.00 1 1017.5
20260506085246 56 286 5.0 11.0 0.00 0.02 0.00 1 1017.5
20260506085145 56 279 5.0 11.0 0.00 0.02 0.00 1 1017.5
20260506085045 56 281 5.0 11.0 0.00 0.02 0.00 1 1017.5
20260506084945 56 284 5.0 11.0 0.00 0.02 0.00 1 1017.5
20260506084840 56 286 5.0 10.0 0.00 0.02 0.00 1 1017.4
20260506084739 56 291 5.0 10.0 0.00 0.02 0.00 1 1017.5
20260506084639 56 295 5.0 10.0 0.00 0.02 0.00 1 1017.5
20260506084558 56 271 5.0 10.0 0.00 0.02 0.00 1 1017.6
20260506084554 56 300 6.0 10.0 0.00 0.02 0.00 1 1017.5
20260506084550 56 286 6.0 10.0 0.00 0.02 0.00 1 1017.6
20260506084546 56 272 5.0 10.0 0.00 0.02 0.00 1 1017.6
20260506084133 56 281 6.0 10.0 0.00 0.02 0.00 1 1017.5
20260506084034 56 261 5.0 10.0 0.00 0.02 0.00 1 1017.6
20260506083931 56 274 5.0 10.0 0.00 0.02 0.00 1 1017.6
20260506083826 56 281 6.0 10.0 0.00 0.02 0.00 1 1017.5
20260506083726 56 310 6.0 10.0 0.00 0.02 0.00 1 1017.5
20260506083626 56 271 6.0 10.0 0.00 0.02 0.00 1 1017.5
20260506083526 56 279 6.0 10.0 0.00 0.02 0.00 1 1017.5
20260506083425 56 283 6.0 10.0 0.00 0.02 0.00 1 1017.5
20260506083322 56 284 5.0 10.0 0.00 0.02 0.00 1 1017.5
20260506083219 56 275 6.0 9.0 0.00 0.02 0.00 1 1017.5
20260506083119 56 282 5.0 9.0 0.00 0.02 0.00 1 1017.6
20260506083019 56 263 6.0 9.0 0.00 0.03 0.00 1 1017.6
20260506082917 56 282 6.0 9.0 0.00 0.03 0.00 1 1017.6
20260506082810 56 281 5.0 9.0 0.00 0.03 0.00 1 1017.6
20260506082710 56 286 5.0 9.0 0.00 0.03 0.00 1 1017.6
20260506082610 56 277 5.0 9.0 0.00 0.03 0.00 1 1017.6
20260506082509 56 275 5.0 9.0 0.00 0.03 0.00 1 1017.7
20260506082411 56 279 4.0 9.0 0.00 0.03 0.00 1 1017.7
20260506082408 56 277 4.0 9.0 0.00 0.03 0.00 1 1017.7
20260506082203 56 275 4.0 9.0 0.00 0.03 0.00 1 1017.7
20260506082103 56 300 4.0 9.0 0.00 0.03 0.00 1 1017.7
20260506082004 56 274 3.0 9.0 0.00 0.04 0.00 1 1017.7
20260506081902 56 278 3.0 7.0 0.00 0.04 0.00 1 1017.7
20260506081756 56 263 3.0 7.0 0.00 0.04 0.00 1 1017.7
20260506081656 56 272 3.0 7.0 0.00 0.04 0.00 1 1017.7
20260506081555 56 239 3.0 7.0 0.00 0.04 0.00 1 1017.8
20260506081455 56 266 3.0 7.0 0.00 0.04 0.00 1 1017.7
20260506081355 56 281 3.0 7.0 0.00 0.04 0.00 1 1017.7
20260506081258 56 281 3.0 7.0 0.00 0.04 0.00 1 1017.7
20260506081254 56 279 3.0 7.0 0.00 0.04 0.00 1 1017.7
20260506081050 56 280 4.0 7.0 0.00 0.04 0.00 1 1017.7
20260506080950 56 294 4.0 7.0 0.00 0.04 0.00 1 1017.7
20260506080849 56 269 4.0 7.0 0.00 0.04 0.00 1 1017.7
20260506080744 56 292 4.0 7.0 0.00 0.04 0.00 1 1017.7
20260506080644 56 271 4.0 7.0 0.00 0.04 0.00 1 1017.7
20260506080543 56 277 4.0 8.0 0.00 0.05 0.00 1 1017.7
20260506080443 56 281 4.0 8.0 0.00 0.05 0.00 1 1017.7
20260506080343 56 280 4.0 8.0 0.00 0.05 0.00 1 1017.6
20260506080237 56 280 4.0 8.0 0.00 0.05 0.00 1 1017.6
20260506080137 56 276 4.0 8.0 0.00 0.05 0.00 1 1017.6
20260506073510 56 267 4.0 8.0 0.00 0.06 0.00 1 1017.4
20260506073410 56 294 4.0 8.0 0.00 0.06 0.00 1 1017.4
20260506073306 56 267 4.0 8.0 0.00 0.06 0.00 1 1017.4
20260506073204 56 290 4.0 8.0 0.00 0.06 0.00 1 1017.4
20260506073104 56 294 4.0 8.0 0.00 0.06 0.00 1 1017.4
20260506073004 56 281 4.0 8.0 0.00 0.07 0.00 1 1017.4
20260506072903 56 281 4.0 8.0 0.00 0.07 0.00 1 1017.3
20260506072801 56 279 4.0 8.0 0.00 0.07 0.00 1 1017.4
20260506072655 56 281 4.0 7.0 0.00 0.07 0.00 1 1017.4
20260506072555 56 275 3.0 7.0 0.00 0.07 0.00 1 1017.4
20260506072455 56 281 3.0 7.0 0.00 0.07 0.00 1 1017.3
20260506072355 56 280 3.0 7.0 0.00 0.07 0.00 1 1017.3
20260506072255 56 273 3.0 7.0 0.00 0.07 0.00 1 1017.3
20260506072151 56 281 3.0 8.0 0.00 0.07 0.00 1 1017.3
20260506072049 56 281 4.0 8.0 0.00 0.07 0.00 1 1017.3
20260506072002 56 254 4.0 8.0 0.00 0.07 0.00 1 1017.3
20260506071853 56 275 4.0 8.0 0.00 0.07 0.00 1 1017.3
20260506071643 56 287 4.0 8.0 0.00 0.07 0.00 1 1017.3
20260506071543 56 290 5.0 9.0 0.00 0.07 0.00 1 1017.3
20260506071443 56 300 5.0 9.0 0.00 0.07 0.00 1 1017.3
20260506071343 56 284 5.0 9.0 0.00 0.07 0.00 1 1017.3
20260506071243 56 296 5.0 9.0 0.00 0.07 0.00 1 1017.3
20260506071137 56 277 5.0 9.0 0.00 0.07 0.00 1 1017.3
20260506071037 56 288 4.0 9.0 0.00 0.07 0.00 1 1017.3
20260506070937 56 265 4.0 9.0 0.00 0.07 0.00 1 1017.3
20260506070838 56 284 4.0 9.0 0.00 0.07 0.00 1 1017.3
20260506070736 56 265 4.0 9.0 0.00 0.07 0.00 1 1017.3
20260506070631 56 294 5.0 9.0 0.00 0.07 0.00 1 1017.3
20260506070532 56 305 5.0 9.0 0.00 0.07 0.00 1 1017.3
20260506070432 56 310 5.0 10.0 0.00 0.07 0.00 1 1017.3
20260506070331 56 289 5.0 10.0 0.00 0.07 0.00 1 1017.2
20260506070230 56 271 6.0 10.0 0.00 0.07 0.00 1 1017.2
20260506070125 56 285 6.0 10.0 0.00 0.07 0.00 1 1017.2
20260506062455 56 282 6.0 10.0 0.00 0.08 0.07 1 1017.0
20260506062348 56 269 6.0 10.0 0.00 0.08 0.07 1 1017.0
20260506062248 56 282 6.0 10.0 0.00 0.08 0.07 1 1017.0
20260506062148 56 284 6.0 10.0 0.00 0.08 0.07 1 1017.0
20260506062048 56 287 5.0 10.0 0.00 0.08 0.07 1 1017.0
20260506061959 56 279 6.0 10.0 0.00 0.08 0.07 1 1016.9
20260506061955 56 263 6.0 10.0 0.00 0.08 0.07 1 1016.9
20260506061951 56 289 6.0 10.0 0.00 0.08 0.07 1 1016.9
20260506061643 56 285 6.0 10.0 0.00 0.08 0.07 1 1016.9
20260506061542 56 290 6.0 10.0 0.00 0.08 0.07 1 1016.9
20260506061442 56 267 6.0 11.0 0.00 0.08 0.07 1 1016.9
20260506061337 56 267 6.0 11.0 0.00 0.08 0.07 1 1016.9
20260506061236 56 279 6.0 11.0 0.00 0.08 0.07 1 1016.8
20260506061136 56 297 6.0 11.0 0.00 0.08 0.07 1 1016.9
20260506061036 56 283 6.0 11.0 0.00 0.08 0.07 1 1016.9
20260506060936 56 274 6.0 11.0 0.00 0.08 0.07 1 1016.9
20260506060833 56 284 6.0 11.0 0.00 0.08 0.07 1 1016.9
20260506060733 56 312 7.0 11.0 0.00 0.08 0.07 1 1016.9
20260506060632 56 295 7.0 11.0 0.00 0.08 0.07 1 1016.8
20260506060532 56 297 7.0 11.0 0.00 0.08 0.07 1 1016.8
20260506060433 56 271 7.0 11.0 0.00 0.08 0.07 1 1016.9
20260506060429 56 279 6.0 11.0 0.00 0.08 0.07 1 1016.8
20260506060225 56 276 7.0 11.0 0.00 0.08 0.07 1 1016.9
20260506060125 56 277 6.0 11.0 0.00 0.08 0.07 1 1016.9
20260506051330 57 252 6.0 11.0 0.00 0.10 0.07 1 1016.6
20260506051225 57 236 6.0 10.0 0.00 0.10 0.07 1 1016.6
20260506051125 57 279 6.0 10.0 0.00 0.10 0.07 1 1016.6
20260506051024 56 289 6.0 10.0 0.00 0.10 0.07 1 1016.6
20260506050924 56 265 7.0 12.0 0.00 0.10 0.07 1 1016.6
20260506050824 56 278 7.0 12.0 0.00 0.10 0.07 1 1016.6
20260506050721 57 273 6.0 12.0 0.00 0.10 0.07 1 1016.6
20260506050621 57 282 6.0 12.0 0.00 0.10 0.07 1 1016.5
20260506050521 57 336 7.0 12.0 0.00 0.10 0.07 1 1016.5
20260506050421 57 281 7.0 12.0 0.00 0.10 0.07 1 1016.5
20260506050318 57 276 7.0 12.0 0.00 0.10 0.07 1 1016.5
20260506050213 57 291 7.0 12.0 0.00 0.10 0.07 1 1016.5
20260506050112 57 269 7.0 12.0 0.00 0.10 0.07 1 1016.5
20260506045100 56 282 6.0 11.0 0.00 0.10 0.07 1 1016.5
20260506045000 56 277 6.0 11.0 0.00 0.10 0.07 1 1016.4
20260506044900 56 280 6.0 11.0 0.00 0.10 0.07 1 1016.4
20260506044800 56 281 6.0 11.0 0.00 0.10 0.07 1 1016.5
20260506044654 56 267 6.0 10.0 0.00 0.10 0.07 1 1016.5
20260506044554 57 272 5.0 10.0 0.00 0.10 0.07 1 1016.5
20260506044454 57 252 5.0 10.0 0.00 0.10 0.07 1 1016.5
20260506044354 57 291 5.0 10.0 0.00 0.10 0.07 1 1016.5
20260506044254 57 254 5.0 10.0 0.00 0.10 0.07 1 1016.5
20260506044150 57 270 5.0 10.0 0.00 0.10 0.07 1 1016.4
20260506044052 56 311 5.0 10.0 0.00 0.10 0.07 1 1016.4
20260506043950 56 271 5.0 10.0 0.00 0.10 0.07 1 1016.4
20260506043853 56 286 5.0 10.0 0.00 0.10 0.07 1 1016.4
20260506043748 56 277 6.0 10.0 0.00 0.10 0.07 1 1016.3
20260506043642 56 277 6.0 10.0 0.00 0.10 0.07 1 1016.3
20260506043542 56 255 6.0 11.0 0.00 0.10 0.07 1 1016.4
20260506043442 56 278 6.0 11.0 0.00 0.11 0.07 1 1016.3
20260506043343 56 304 6.0 11.0 0.00 0.11 0.07 1 1016.1
20260506043241 56 269 6.0 11.0 0.00 0.11 0.07 1 1016.3
20260506043136 56 312 6.0 11.0 0.00 0.11 0.07 1 1016.3
20260506043036 56 300 6.0 11.0 0.00 0.11 0.07 1 1016.3
20260506042937 56 271 6.0 11.0 0.00 0.11 0.07 1 1016.3
20260506042836 56 281 6.0 11.0 0.00 0.11 0.07 1 1016.3
20260506042736 56 295 6.0 11.0 0.00 0.11 0.07 1 1016.1
20260506042631 56 288 6.0 11.0 0.00 0.11 0.07 1 1016.1
20260506042531 56 265 6.0 11.0 0.00 0.11 0.07 1 1016.1
20260506042430 56 284 6.0 11.0 0.00 0.11 0.07 1 1016.1
20260506042330 56 283 6.0 10.0 0.00 0.11 0.07 1 1016.1
20260506042230 56 285 6.0 10.0 0.00 0.11 0.07 1 1016.1
20260506042124 56 261 6.0 10.0 0.00 0.11 0.07 1 1016.0
20260506042033 56 255 6.0 10.0 0.00 0.11 0.07 1 1016.1
20260506042029 56 273 6.0 10.0 0.00 0.11 0.07 1 1016.1
20260506041824 56 260 6.0 10.0 0.00 0.11 0.07 1 1016.0
20260506041724 56 336 5.0 10.0 0.00 0.11 0.07 1 1016.0
20260506041619 56 279 5.0 10.0 0.00 0.11 0.07 1 1016.0
20260506041518 56 279 5.0 10.0 0.00 0.11 0.07 1 1016.0
20260506041418 56 293 4.0 10.0 0.00 0.11 0.07 1 1016.0
20260506041327 56 263 4.0 9.0 0.00 0.11 0.07 1 1016.0
20260506041323 56 264 4.0 9.0 0.00 0.11 0.07 1 1016.0
20260506041120 56 267 4.0 9.0 0.00 0.11 0.07 1 1015.9
20260506041116 56 274 4.0 9.0 0.00 0.11 0.07 1 1015.9
20260506040912 56 274 5.0 10.0 0.00 0.11 0.07 1 1015.9
20260506040812 56 276 5.0 10.0 0.00 0.11 0.07 1 1015.9
20260506040712 56 275 5.0 10.0 0.00 0.11 0.07 1 1015.8
20260506040606 56 271 5.0 10.0 0.00 0.11 0.07 1 1015.8
20260506040506 56 279 5.0 10.0 0.00 0.11 0.07 1 1015.8
20260506040406 56 281 6.0 10.0 0.00 0.11 0.07 1 1015.8
20260506040306 56 271 6.0 10.0 0.00 0.11 0.07 1 1015.7
20260506040206 56 269 6.0 10.0 0.00 0.11 0.07 1 1015.8
20260506040100 56 254 6.0 10.0 0.00 0.11 0.07 1 1015.7
20260506040000 56 250 5.0 10.0 0.00 0.11 0.07 1 1015.7
20260506035900 56 271 5.0 9.0 0.00 0.11 0.07 1 1015.7
20260506035800 56 268 5.0 9.0 0.00 0.11 0.07 1 1015.7
20260506035700 56 266 5.0 9.0 0.00 0.11 0.07 1 1015.7
20260506035556 56 265 5.0 9.0 0.00 0.11 0.07 1 1015.7
20260506035456 56 248 6.0 11.0 0.00 0.11 0.07 1 1015.7
20260506035356 56 286 6.0 11.0 0.00 0.11 0.07 1 1015.7
20260506035256 57 257 6.0 11.0 0.00 0.11 0.07 1 1015.7
20260506035154 57 251 6.0 11.0 0.00 0.11 0.07 1 1015.7
20260506035048 57 269 6.0 11.0 0.00 0.11 0.07 1 1015.6
20260506034948 57 272 6.0 11.0 0.00 0.11 0.07 1 1015.6
20260506034848 57 244 5.0 11.0 0.00 0.11 0.07 1 1015.6
20260506034748 57 265 5.0 11.0 0.00 0.11 0.07 1 1015.6
20260506034648 57 229 5.0 11.0 0.00 0.11 0.07 1 1015.6
20260506034542 57 274 5.0 11.0 0.00 0.11 0.07 1 1015.6
20260506034442 57 257 5.0 11.0 0.00 0.11 0.07 1 1015.5
20260506034342 57 277 4.0 10.0 0.00 0.11 0.07 1 1015.5
20260506034242 57 274 4.0 10.0 0.00 0.11 0.07 1 1015.5
20260506034142 57 288 4.0 10.0 0.00 0.11 0.07 1 1015.5
20260506034038 57 290 4.0 10.0 0.00 0.11 0.07 1 1015.5
20260506033936 57 271 5.0 11.0 0.00 0.11 0.07 1 1015.5
20260506033836 57 275 5.0 11.0 0.00 0.11 0.07 1 1015.4
20260506033744 57 286 5.0 11.0 0.00 0.11 0.07 1 1015.4
20260506033740 57 277 5.0 11.0 0.00 0.11 0.07 1 1015.5
20260506033530 57 271 5.0 11.0 0.00 0.11 0.07 1 1015.4
20260506033430 57 249 5.0 11.0 0.00 0.11 0.07 1 1015.5
20260506033330 57 269 6.0 11.0 0.00 0.11 0.07 1 1015.4
20260506033238 57 267 6.0 11.0 0.00 0.11 0.07 1 1015.4
20260506033234 57 254 6.0 11.0 0.00 0.11 0.07 1 1015.5
20260506033024 57 263 6.0 11.0 0.00 0.11 0.07 1 1015.4
20260506032924 57 229 6.0 11.0 0.00 0.11 0.07 1 1015.4
20260506032833 57 250 6.0 10.0 0.00 0.11 0.07 1 1015.3
20260506032828 57 233 6.0 10.0 0.00 0.11 0.07 1 1015.4
20260506032624 57 242 6.0 10.0 0.00 0.11 0.07 1 1015.4
20260506032518 57 278 5.0 10.0 0.00 0.11 0.07 1 1015.3
20260506032418 57 292 5.0 10.0 0.00 0.11 0.07 1 1015.3
20260506032318 57 275 6.0 10.0 0.00 0.11 0.07 1 1015.3
20260506032218 57 284 6.0 10.0 0.00 0.11 0.07 1 1015.3
20260506032118 57 254 6.0 10.0 0.00 0.11 0.07 1 1015.3
20260506032012 57 257 6.0 10.0 0.00 0.11 0.07 1 1015.3
20260506031912 57 262 6.0 10.0 0.00 0.11 0.07 1 1015.3
20260506031812 57 294 6.0 13.0 0.00 0.11 0.07 1 1015.3
20260506031710 57 250 6.0 13.0 0.00 0.11 0.07 1 1015.3
20260506031609 57 279 6.0 13.0 0.00 0.11 0.07 1 1015.2
20260506031504 57 237 6.0 13.0 0.00 0.11 0.07 1 1015.2
20260506031404 57 284 6.0 13.0 0.00 0.11 0.07 1 1015.2
20260506031304 57 277 5.0 13.0 0.00 0.11 0.07 1 1015.1
20260506031212 57 278 5.0 13.0 0.00 0.11 0.07 1 1015.1
20260506031208 57 261 5.0 13.0 0.00 0.11 0.07 1 1015.1
20260506031004 57 281 5.0 13.0 0.00 0.11 0.07 1 1015.1
20260506030903 57 252 5.0 13.0 0.00 0.11 0.07 1 1015.1
20260506030805 57 275 5.0 10.0 0.00 0.11 0.07 1 1015.1
20260506030704 58 292 5.0 13.0 0.00 0.11 0.07 1 1015.1
20260506030602 58 274 5.0 13.0 0.00 0.11 0.07 1 1015.1
20260506030456 58 292 6.0 13.0 0.00 0.11 0.07 1 1015.1
20260506030355 58 269 6.0 13.0 0.00 0.11 0.07 1 1015.1
20260506030255 58 278 6.0 13.0 0.00 0.11 0.07 1 1015.1
20260506030156 58 274 7.0 13.0 0.00 0.11 0.07 1 1015.1
20260506030056 58 279 7.0 13.0 0.00 0.11 0.07 1 1015.1
20260506025956 58 284 7.0 13.0 0.00 0.11 0.07 1 1015.1
20260506025856 57 265 7.0 13.0 0.00 0.11 0.07 1 1015.1
20260506025756 57 229 7.0 12.0 0.00 0.11 0.07 1 1015.1
20260506025656 57 235 7.0 12.0 0.00 0.11 0.07 1 1015.1
20260506025556 57 234 7.0 12.0 0.00 0.11 0.07 1 1015.1
20260506025456 57 269 7.0 12.0 0.00 0.11 0.07 1 1015.0
20260506025358 57 323 7.0 12.0 0.00 0.11 0.07 1 1015.0
20260506025354 58 241 7.0 12.0 0.00 0.11 0.07 1 1015.0
20260506025150 58 271 7.0 12.0 0.00 0.11 0.07 1 1015.0
20260506025059 58 265 7.0 11.0 0.00 0.11 0.07 1 1015.0
20260506025054 58 285 7.0 11.0 0.00 0.11 0.07 1 1015.0
20260506024850 58 268 7.0 12.0 0.00 0.11 0.07 1 1015.0
20260506024747 58 238 7.0 12.0 0.00 0.11 0.07 1 1015.0
20260506024647 58 265 8.0 13.0 0.00 0.11 0.07 1 1014.9
20260506024548 58 250 8.0 13.0 0.00 0.11 0.07 1 1015.0
20260506024448 58 211 8.0 13.0 0.00 0.11 0.07 1 1015.0
20260506024348 58 239 8.0 14.0 0.00 0.11 0.07 1 1014.9
20260506024248 58 240 9.0 14.0 0.00 0.11 0.07 1 1014.9
20260506024149 58 229 8.0 14.0 0.00 0.11 0.07 1 1014.9
20260506024048 58 217 8.0 14.0 0.00 0.11 0.07 1 1014.9
20260506023948 58 282 8.0 14.0 0.00 0.11 0.07 1 1015.0
20260506023848 58 227 9.0 14.0 0.00 0.11 0.07 1 1015.0
20260506023748 58 277 8.0 14.0 0.00 0.11 0.07 1 1015.0
20260506023649 58 246 8.0 14.0 0.00 0.11 0.07 1 1014.9
20260506023547 58 246 8.0 14.0 0.00 0.11 0.07 1 1015.0
20260506023447 58 229 8.0 15.0 0.00 0.11 0.07 1 1014.9
20260506023348 58 229 8.0 15.0 0.00 0.11 0.07 1 1014.9
20260506023248 58 271 8.0 15.0 0.00 0.11 0.07 1 1015.0
20260506023148 58 251 9.0 15.0 0.00 0.11 0.07 1 1014.9
20260506023044 58 259 9.0 15.0 0.00 0.11 0.07 1 1014.9
20260506022944 58 198 9.0 15.0 0.00 0.11 0.07 1 1014.9
20260506022844 58 243 9.0 15.0 0.00 0.11 0.07 1 1014.9
20260506022744 58 225 9.0 15.0 0.00 0.11 0.07 1 1014.9
20260506022644 58 263 10.0 15.0 0.00 0.11 0.07 1 1014.9
20260506022544 58 242 10.0 15.0 0.00 0.11 0.07 1 1014.8
20260506022443 58 247 10.0 15.0 0.00 0.11 0.07 1 1014.8
20260506022344 58 253 10.0 15.0 0.00 0.11 0.07 1 1014.8
20260506022243 58 257 10.0 16.0 0.00 0.11 0.07 1 1014.8
20260506022143 58 245 10.0 16.0 0.00 0.11 0.07 1 1014.8
20260506022044 58 265 10.0 16.0 0.00 0.11 0.07 1 1014.7
20260506021944 58 271 10.0 16.0 0.00 0.11 0.07 1 1014.7
20260506021844 58 265 11.0 16.0 0.00 0.11 0.07 1 1014.7
20260506021744 58 237 10.0 16.0 0.00 0.11 0.07 1 1014.7
20260506021644 58 263 10.0 16.0 0.00 0.11 0.07 1 1014.7
20260506021544 58 244 10.0 16.0 0.00 0.11 0.07 1 1014.7
20260506021442 58 306 10.0 16.0 0.00 0.11 0.07 1 1014.7
20260506021341 58 255 10.0 16.0 0.00 0.11 0.07 1 1014.6
20260506021241 58 247 10.0 16.0 0.00 0.11 0.07 1 1014.7
20260506021151 58 213 9.0 16.0 0.00 0.11 0.07 1 1014.7
20260506021147 58 225 9.0 16.0 0.00 0.11 0.07 1 1014.6
20260506020942 58 238 9.0 16.0 0.00 0.11 0.07 1 1014.7
20260506020842 58 226 9.0 16.0 0.00 0.11 0.07 1 1014.7
20260506020742 58 223 9.0 15.0 0.00 0.11 0.07 1 1014.6
20260506020635 58 235 9.0 15.0 0.00 0.11 0.07 1 1014.7
20260506020536 58 217 10.0 16.0 0.00 0.11 0.07 1 1014.7
20260506020436 58 261 9.0 16.0 0.00 0.11 0.07 1 1014.7
20260506020336 58 202 10.0 16.0 0.00 0.11 0.07 1 1014.7
20260506020236 58 282 10.0 16.0 0.00 0.11 0.07 1 1014.7
20260506020136 58 200 10.0 16.0 0.00 0.11 0.07 1 1014.7
20260506020035 58 240 10.0 17.0 0.00 0.11 0.07 1 1014.7
20260506015944 58 227 10.0 17.0 0.00 0.11 0.07 1 1014.7
20260506015940 58 261 10.0 17.0 0.00 0.11 0.07 1 1014.7
20260506015736 58 223 10.0 17.0 0.00 0.11 0.07 1 1014.7
20260506015636 58 247 10.0 17.0 0.00 0.11 0.07 1 1014.7
20260506015541 58 224 10.0 17.0 0.00 0.11 0.07 1 1014.7
20260506015536 58 237 10.0 17.0 0.00 0.11 0.07 1 1014.7
20260506015340 58 238 10.0 17.0 0.00 0.11 0.07 1 1014.7
20260506015336 58 240 10.0 17.0 0.00 0.11 0.07 1 1014.7
20260506015132 58 245 10.0 17.0 0.00 0.11 0.07 1 1014.7
20260506015032 58 246 10.0 16.0 0.00 0.11 0.07 1 1014.8
20260506014929 58 225 10.0 16.0 0.00 0.11 0.07 1 1014.8
20260506014830 58 226 9.0 16.0 0.00 0.11 0.07 1 1014.8
20260506014730 58 279 10.0 16.0 0.00 0.11 0.07 1 1014.8
20260506014630 58 270 10.0 16.0 0.00 0.11 0.07 1 1014.7
20260506014530 58 236 10.0 16.0 0.00 0.11 0.07 1 1014.8
20260506014430 58 251 10.0 16.0 0.00 0.11 0.07 1 1014.7
20260506014330 58 236 10.0 16.0 0.00 0.11 0.07 1 1014.7
20260506014226 59 248 10.0 16.0 0.00 0.11 0.07 1 1014.8
20260506014126 59 219 10.0 15.0 0.00 0.11 0.07 1 1014.8
20260506014026 59 212 10.0 15.0 0.00 0.11 0.07 1 1014.8
20260506013925 59 222 10.0 16.0 0.00 0.11 0.07 1 1014.7
20260506013826 58 238 10.0 16.0 0.00 0.11 0.07 1 1014.7
20260506013726 58 221 10.0 16.0 0.00 0.11 0.07 1 1014.8
20260506013625 59 224 10.0 16.0 0.00 0.11 0.07 1 1014.7
20260506013526 58 231 9.0 16.0 0.00 0.11 0.07 1 1014.7
20260506013426 58 257 9.0 16.0 0.00 0.11 0.07 1 1014.8
20260506013326 58 277 9.0 16.0 0.00 0.11 0.07 1 1014.7
20260506013226 59 232 9.0 16.0 0.00 0.11 0.07 1 1014.8
20260506013126 59 234 8.0 16.0 0.00 0.11 0.07 1 1014.8
20260506013027 59 225 8.0 16.0 0.00 0.11 0.07 1 1014.8
20260506012926 59 225 8.0 14.0 0.00 0.11 0.07 1 1014.8
20260506012826 59 232 8.0 14.0 0.00 0.11 0.07 1 1014.8
20260506012726 59 237 8.0 14.0 0.00 0.11 0.07 1 1014.8
20260506012626 59 238 8.0 14.0 0.00 0.11 0.07 1 1014.8
20260506012526 59 254 9.0 14.0 0.00 0.11 0.07 1 1014.8
20260506012425 59 263 9.0 14.0 0.00 0.11 0.07 1 1014.8
20260506012322 59 255 9.0 14.0 0.00 0.11 0.07 1 1014.8
20260506012222 59 251 9.0 14.0 0.00 0.11 0.07 1 1014.7
20260506012122 59 238 9.0 15.0 0.00 0.11 0.07 1 1014.7
20260506012022 59 244 9.0 15.0 0.00 0.11 0.07 1 1014.7
20260506011922 59 229 9.0 15.0 0.00 0.11 0.07 1 1014.7
20260506011822 59 270 9.0 15.0 0.00 0.11 0.07 1 1014.7
20260506011722 59 275 9.0 15.0 0.00 0.11 0.07 1 1014.7
20260506011622 59 255 9.0 15.0 0.00 0.11 0.07 1 1014.7
20260506011530 59 234 9.0 15.0 0.00 0.11 0.07 1 1014.7
20260506011526 59 253 9.0 15.0 0.00 0.11 0.07 1 1014.7
20260506011322 59 244 9.0 15.0 0.00 0.11 0.07 1 1014.7
20260506011222 59 249 10.0 15.0 0.00 0.11 0.07 1 1014.7
20260506011121 59 219 10.0 15.0 0.00 0.11 0.07 1 1014.7
20260506011022 59 292 10.0 15.0 0.00 0.11 0.07 1 1014.7
20260506010922 59 211 10.0 15.0 0.00 0.11 0.07 1 1014.7
20260506010831 59 253 10.0 16.0 0.00 0.11 0.07 1 1014.6
20260506010826 59 269 10.0 15.0 0.00 0.11 0.07 1 1014.7
20260506010622 59 225 10.0 16.0 0.00 0.11 0.07 1 1014.6
20260506010522 59 260 10.0 16.0 0.00 0.11 0.07 1 1014.6
20260506010418 59 218 11.0 16.0 0.00 0.11 0.07 1 1014.7
20260506010317 59 261 10.0 16.0 0.00 0.11 0.07 1 1014.6
20260506010217 59 227 11.0 16.0 0.00 0.11 0.07 1 1014.7
20260506010118 59 236 10.0 16.0 0.00 0.11 0.07 1 1014.6
20260506010017 59 236 10.0 16.0 0.00 0.11 0.07 1 1014.7
20260506005917 59 260 11.0 16.0 0.00 0.11 0.07 1 1014.7
20260506005817 59 237 10.0 16.0 0.00 0.11 0.07 1 1014.7
20260506005717 59 206 10.0 16.0 0.00 0.11 0.07 1 1014.7
20260506005618 59 217 10.0 16.0 0.00 0.11 0.07 1 1014.7
20260506005518 59 223 10.0 15.0 0.00 0.11 0.07 1 1014.7
20260506005418 59 232 10.0 15.0 0.00 0.11 0.07 1 1014.6
20260506005317 59 232 10.0 16.0 0.00 0.11 0.07 1 1014.6
20260506005217 59 223 10.0 16.0 0.00 0.11 0.07 1 1014.6
20260506005117 59 292 10.0 16.0 0.00 0.11 0.07 1 1014.6
20260506005018 59 222 10.0 16.0 0.00 0.11 0.07 1 1014.7
20260506004918 59 233 10.0 16.0 0.00 0.11 0.07 1 1014.7
20260506004818 59 236 10.0 16.0 0.00 0.11 0.07 1 1014.7
20260506004718 59 229 10.0 16.0 0.00 0.11 0.07 1 1014.6
20260506004617 59 205 10.0 16.0 0.00 0.11 0.07 1 1014.6
20260506004521 59 251 10.0 15.0 0.00 0.11 0.07 1 1014.6
20260506004516 59 231 10.0 16.0 0.00 0.11 0.07 1 1014.6
20260506004312 59 225 10.0 16.0 0.00 0.11 0.07 1 1014.5
20260506004212 60 219 10.0 16.0 0.00 0.11 0.07 1 1014.5